Wetterdaten: Woche 22.04.19 - 28.04.19 (KW17)
Datum Zeit Temp. Aussen Temp. o. S. +5cm Feuchte Auss Luftdruck Regen Sonnenschein Regendauer Solar Windben Empfang
28.04.2019 01:00 8,6 C 8,3 C 7,2 C 82 % 1013,1 hPa 0,0 l/m 0 h 0 h 0 W/m 6,4 km/h (2 Bft) 100,00 %
28.04.2019 01:02 8,6 C 8,3 C 7,2 C 82 % 1013,1 hPa 0,0 l/m 0 h 0 h 0 W/m 9,7 km/h (2 Bft) 97,87 %
28.04.2019 01:04 8,6 C 7,8 C 7,2 C 82 % 1013,1 hPa 0,0 l/m 0 h 0 h 0 W/m 6,4 km/h (2 Bft) 97,87 %
28.04.2019 01:06 8,6 C 7,8 C 7,2 C 82 % 1013,1 hPa 0,0 l/m 0 h 0 h 0 W/m 9,7 km/h (2 Bft) 100,00 %
28.04.2019 01:08 8,6 C 8,3 C 7,2 C 82 % 1013,1 hPa 0,0 l/m 0 h 0 h 0 W/m 9,7 km/h (2 Bft) 100,00 %
28.04.2019 01:10 8,6 C 8,3 C 7,8 C 82 % 1013,1 hPa 0,0 l/m 0 h 0 h 0 W/m 16,1 km/h (3 Bft) 97,87 %
28.04.2019 01:12 8,6 C 8,3 C 7,2 C 82 % 1013,1 hPa 0,0 l/m 0 h 0 h 0 W/m 9,7 km/h (2 Bft) 95,74 %
28.04.2019 01:14 8,6 C 7,8 C 7,2 C 82 % 1013,1 hPa 0,0 l/m 0 h 0 h 0 W/m 6,4 km/h (2 Bft) 100,00 %
28.04.2019 01:16 8,6 C 7,8 C 7,2 C 82 % 1013,2 hPa 0,0 l/m 0 h 0 h 0 W/m 16,1 km/h (3 Bft) 100,00 %
28.04.2019 01:18 8,6 C 7,8 C 7,8 C 82 % 1013,1 hPa 0,0 l/m 0 h 0 h 0 W/m 9,7 km/h (2 Bft) 100,00 %
28.04.2019 01:20 8,6 C 7,8 C 7,8 C 82 % 1013,1 hPa 0,0 l/m 0 h 0 h 0 W/m 12,9 km/h (3 Bft) 100,00 %
28.04.2019 01:22 8,6 C 7,8 C 7,8 C 82 % 1013,1 hPa 0,0 l/m 0 h 0 h 0 W/m 16,1 km/h (3 Bft) 100,00 %
28.04.2019 01:24 8,6 C 8,3 C 7,8 C 82 % 1013,1 hPa 0,0 l/m 0 h 0 h 0 W/m 12,9 km/h (3 Bft) 100,00 %
28.04.2019 01:26 8,6 C 7,8 C 7,8 C 82 % 1013,1 hPa 0,0 l/m 0 h 0 h 0 W/m 9,7 km/h (2 Bft) 100,00 %
28.04.2019 01:28 8,6 C 8,3 C 7,8 C 82 % 1013,1 hPa 0,0 l/m 0 h 0 h 0 W/m 12,9 km/h (3 Bft) 100,00 %
28.04.2019 01:30 8,6 C 8,3 C 7,8 C 82 % 1013,1 hPa 0,0 l/m 0 h 0 h 0 W/m 12,9 km/h (3 Bft) 100,00 %
28.04.2019 01:32 8,6 C 8,3 C 7,8 C 82 % 1013,1 hPa 0,0 l/m 0 h 0 h 0 W/m 9,7 km/h (2 Bft) 100,00 %
28.04.2019 01:34 8,7 C 8,3 C 7,8 C 82 % 1013,2 hPa 0,0 l/m 0 h 0 h 0 W/m 9,7 km/h (2 Bft) 100,00 %
28.04.2019 01:36 8,6 C 8,3 C 7,8 C 82 % 1013,1 hPa 0,0 l/m 0 h 0 h 0 W/m 16,1 km/h (3 Bft) 100,00 %
28.04.2019 01:38 8,7 C 8,3 C 7,8 C 82 % 1013,1 hPa 0,0 l/m 0 h 0 h 0 W/m 16,1 km/h (3 Bft) 100,00 %
28.04.2019 01:40 8,7 C 8,3 C 7,8 C 82 % 1013,1 hPa 0,0 l/m 0 h 0 h 0 W/m 16,1 km/h (3 Bft) 100,00 %
28.04.2019 01:42 8,7 C 8,3 C 7,8 C 82 % 1013,1 hPa 0,0 l/m 0 h 0 h 0 W/m 12,9 km/h (3 Bft) 100,00 %
28.04.2019 01:44 8,7 C 8,3 C 7,8 C 81 % 1013,1 hPa 0,0 l/m 0 h 0 h 0 W/m 9,7 km/h (2 Bft) 100,00 %
28.04.2019 01:46 8,7 C 8,3 C 7,8 C 81 % 1013,1 hPa 0,0 l/m 0 h 0 h 0 W/m 12,9 km/h (3 Bft) 100,00 %
28.04.2019 01:48 8,7 C 8,3 C 7,8 C 81 % 1013,1 hPa 0,0 l/m 0 h 0 h 0 W/m 12,9 km/h (3 Bft) 100,00 %
28.04.2019 01:50 8,7 C 8,3 C 7,8 C 81 % 1013,1 hPa 0,0 l/m 0 h 0 h 0 W/m 12,9 km/h (3 Bft) 100,00 %
28.04.2019 01:52 8,7 C 8,3 C 7,8 C 81 % 1013,1 hPa 0,0 l/m 0 h 0 h 0 W/m 9,7 km/h (2 Bft) 100,00 %
28.04.2019 01:54 8,7 C 8,3 C 7,8 C 81 % 1013,1 hPa 0,0 l/m 0 h 0 h 0 W/m 22,5 km/h (4 Bft) 100,00 %
28.04.2019 01:56 8,7 C 8,3 C 7,8 C 81 % 1013,1 hPa 0,0 l/m 0 h 0 h 0 W/m 9,7 km/h (2 Bft) 97,87 %
28.04.2019 01:58 8,7 C 8,3 C 7,8 C 81 % 1013,0 hPa 0,0 l/m 0 h 0 h 0 W/m 12,9 km/h (3 Bft) 100,00 %
28.04.2019 02:00 8,7 C 8,3 C 7,8 C 81 % 1013,1 hPa 0,0 l/m 0 h 0 h 0 W/m 16,1 km/h (3 Bft) 93,62 %
28.04.2019 02:02 8,7 C 8,3 C 7,8 C 81 % 1013,1 hPa 0,0 l/m 0 h 0 h 0 W/m 19,3 km/h (3 Bft) 100,00 %
28.04.2019 02:04 8,7 C 8,3 C 7,8 C 81 % 1013,1 hPa 0,0 l/m 0 h 0 h 0 W/m 22,5 km/h (4 Bft) 100,00 %
28.04.2019 02:06 8,7 C 8,3 C 7,8 C 81 % 1013,1 hPa 0,0 l/m 0 h 0 h 0 W/m 16,1 km/h (3 Bft) 96,55 %
28.04.2019 02:08 8,8 C 8,3 C 7,8 C 81 % 1013,1 hPa 0,0 l/m 0 h 0 h 0 W/m 32,2 km/h (5 Bft) 97,37 %
28.04.2019 02:10 8,8 C 8,3 C 7,8 C 81 % 1013,1 hPa 0,0 l/m 0 h 0 h 0 W/m 29,0 km/h (5 Bft) 97,87 %
28.04.2019 02:12 8,8 C 8,3 C 7,8 C 81 % 1013,1 hPa 0,0 l/m 0 h 0 h 0 W/m 9,7 km/h (2 Bft) 97,87 %
28.04.2019 02:14 8,8 C 8,3 C 7,8 C 81 % 1013,0 hPa 0,0 l/m 0 h 0 h 0 W/m 12,9 km/h (3 Bft) 97,87 %
28.04.2019 02:16 8,8 C 8,3 C 7,8 C 81 % 1013,0 hPa 0,0 l/m 0 h 0 h 0 W/m 16,1 km/h (3 Bft) 93,48 %
28.04.2019 02:18 8,8 C 8,3 C 7,8 C 81 % 1013,0 hPa 0,0 l/m 0 h 0 h 0 W/m 16,1 km/h (3 Bft) 95,74 %
28.04.2019 02:20 8,8 C 8,3 C 7,8 C 81 % 1013,0 hPa 0,0 l/m 0 h 0 h 0 W/m 16,1 km/h (3 Bft) 93,62 %
28.04.2019 02:22 8,8 C 8,3 C 7,8 C 81 % 1012,9 hPa 0,0 l/m 0 h 0 h 0 W/m 19,3 km/h (3 Bft) 95,74 %
28.04.2019 02:24 8,8 C 8,3 C 7,8 C 81 % 1013,0 hPa 0,0 l/m 0 h 0 h 0 W/m 19,3 km/h (3 Bft) 91,49 %
28.04.2019 02:26 8,8 C 8,3 C 7,8 C 81 % 1013,0 hPa 0,0 l/m 0 h 0 h 0 W/m 19,3 km/h (3 Bft) 95,74 %
28.04.2019 02:28 8,8 C 8,3 C 7,8 C 81 % 1013,0 hPa 0,0 l/m 0 h 0 h 0 W/m 16,1 km/h (3 Bft) 95,65 %
28.04.2019 02:30 8,8 C 8,3 C 7,8 C 81 % 1013,0 hPa 0,0 l/m 0 h 0 h 0 W/m 16,1 km/h (3 Bft) 95,74 %
28.04.2019 02:32 8,9 C 8,3 C 7,8 C 81 % 1013,0 hPa 0,0 l/m 0 h 0 h 0 W/m 12,9 km/h (3 Bft) 95,92 %
28.04.2019 02:34 8,9 C 8,3 C 7,8 C 81 % 1013,0 hPa 0,0 l/m 0 h 0 h 0 W/m 9,7 km/h (2 Bft) 95,74 %
28.04.2019 02:36 8,9 C 8,3 C 7,8 C 81 % 1013,1 hPa 0,0 l/m 0 h 0 h 0 W/m 16,1 km/h (3 Bft) 94,83 %
28.04.2019 02:38 8,9 C 8,3 C 7,8 C 81 % 1013,1 hPa 0,0 l/m 0 h 0 h 0 W/m 9,7 km/h (2 Bft) 97,14 %
28.04.2019 02:40 8,9 C 8,3 C 7,8 C 81 % 1013,1 hPa 0,0 l/m 0 h 0 h 0 W/m 12,9 km/h (3 Bft) 93,62 %
28.04.2019 02:42 8,9 C 8,3 C 7,8 C 81 % 1013,1 hPa 0,0 l/m 0 h 0 h 0 W/m 16,1 km/h (3 Bft) 95,74 %
28.04.2019 02:44 8,9 C 8,3 C 7,8 C 81 % 1013,1 hPa 0,0 l/m 0 h 0 h 0 W/m 19,3 km/h (3 Bft) 95,74 %
28.04.2019 02:46 8,9 C 8,3 C 7,8 C 81 % 1013,2 hPa 0,0 l/m 0 h 0 h 0 W/m 19,3 km/h (3 Bft) 95,65 %
28.04.2019 02:48 8,9 C 8,3 C 7,8 C 81 % 1013,1 hPa 0,0 l/m 0 h 0 h 0 W/m 25,7 km/h (4 Bft) 95,74 %
28.04.2019 02:50 8,9 C 8,3 C 7,8 C 81 % 1013,1 hPa 0,0 l/m 0 h 0 h 0 W/m 16,1 km/h (3 Bft) 93,62 %
28.04.2019 02:52 8,9 C 8,3 C 7,8 C 81 % 1013,1 hPa 0,0 l/m 0 h 0 h 0 W/m 12,9 km/h (3 Bft) 95,74 %
28.04.2019 02:54 8,9 C 8,3 C 7,8 C 81 % 1013,1 hPa 0,0 l/m 0 h 0 h 0 W/m 22,5 km/h (4 Bft) 95,74 %
28.04.2019 02:56 8,9 C 8,3 C 7,8 C 81 % 1013,1 hPa 0,0 l/m 0 h 0 h 0 W/m 12,9 km/h (3 Bft) 95,74 %
28.04.2019 02:58 8,9 C 8,3 C 7,8 C 81 % 1013,1 hPa 0,0 l/m 0 h 0 h 0 W/m 16,1 km/h (3 Bft) 97,83 %
28.04.2019 03:00 8,9 C 8,3 C 7,8 C 81 % 1013,1 hPa 0,0 l/m 0 h 0 h 0 W/m 12,9 km/h (3 Bft) 97,87 %
28.04.2019 03:02 8,9 C 8,3 C 7,8 C 81 % 1013,0 hPa 0,0 l/m 0 h 0 h 0 W/m 12,9 km/h (3 Bft) 97,87 %
28.04.2019 03:04 8,9 C 8,3 C 7,8 C 81 % 1013,1 hPa 0,0 l/m 0 h 0 h 0 W/m 16,1 km/h (3 Bft) 95,74 %
28.04.2019 03:06 8,8 C 8,3 C 7,8 C 81 % 1013,1 hPa 0,0 l/m 0 h 0 h 0 W/m 16,1 km/h (3 Bft) 97,87 %
28.04.2019 03:08 8,8 C 8,3 C 7,8 C 81 % 1013,1 hPa 0,0 l/m 0 h 0 h 0 W/m 19,3 km/h (3 Bft) 97,92 %
28.04.2019 03:10 8,8 C 8,3 C 7,8 C 81 % 1013,1 hPa 0,0 l/m 0 h 0 h 0 W/m 12,9 km/h (3 Bft) 100,00 %
28.04.2019 03:12 8,8 C 8,3 C 7,8 C 81 % 1013,2 hPa 0,0 l/m 0 h 0 h 0 W/m 16,1 km/h (3 Bft) 97,87 %
28.04.2019 03:14 8,8 C 8,3 C 7,8 C 81 % 1013,0 hPa 0,0 l/m 0 h 0 h 0 W/m 16,1 km/h (3 Bft) 97,87 %
28.04.2019 03:16 8,8 C 8,3 C 7,8 C 81 % 1013,1 hPa 0,0 l/m 0 h 0 h 0 W/m 16,1 km/h (3 Bft) 100,00 %
28.04.2019 03:18 8,8 C 8,3 C 7,8 C 81 % 1013,1 hPa 0,0 l/m 0 h 0 h 0 W/m 22,5 km/h (4 Bft) 100,00 %
28.04.2019 03:20 8,8 C 8,3 C 7,8 C 81 % 1013,1 hPa 0,0 l/m 0 h 0 h 0 W/m 12,9 km/h (3 Bft) 97,87 %
28.04.2019 03:22 8,8 C 8,3 C 7,8 C 81 % 1013,1 hPa 0,0 l/m 0 h 0 h 0 W/m 12,9 km/h (3 Bft) 97,87 %
28.04.2019 03:24 8,8 C 8,3 C 7,8 C 81 % 1013,2 hPa 0,0 l/m 0 h 0 h 0 W/m 12,9 km/h (3 Bft) 95,65 %
28.04.2019 03:26 8,8 C 8,3 C 7,8 C 81 % 1013,2 hPa 0,0 l/m 0 h 0 h 0 W/m 12,9 km/h (3 Bft) 97,87 %
28.04.2019 03:28 8,8 C 8,3 C 7,8 C 81 % 1013,1 hPa 0,0 l/m 0 h 0 h 0 W/m 9,7 km/h (2 Bft) 95,74 %
28.04.2019 03:30 8,8 C 8,3 C 7,8 C 82 % 1013,1 hPa 0,0 l/m 0 h 0 h 0 W/m 12,9 km/h (3 Bft) 97,87 %
28.04.2019 03:32 8,8 C 8,3 C 7,8 C 82 % 1013,2 hPa 0,0 l/m 0 h 0 h 0 W/m 12,9 km/h (3 Bft) 95,65 %
28.04.2019 03:34 8,8 C 7,8 C 7,8 C 82 % 1013,1 hPa 0,0 l/m 0 h 0 h 0 W/m 12,9 km/h (3 Bft) 97,87 %
28.04.2019 03:36 8,8 C 8,3 C 7,8 C 82 % 1013,2 hPa 0,0 l/m 0 h 0 h 0 W/m 16,1 km/h (3 Bft) 97,87 %
28.04.2019 03:38 8,8 C 8,3 C 7,8 C 82 % 1013,2 hPa 0,0 l/m 0 h 0 h 0 W/m 16,1 km/h (3 Bft) 97,87 %
28.04.2019 03:40 8,8 C 8,3 C 7,8 C 82 % 1013,2 hPa 0,0 l/m 0 h 0 h 0 W/m 12,9 km/h (3 Bft) 97,87 %
28.04.2019 03:42 8,7 C 7,8 C 7,8 C 82 % 1013,2 hPa 0,0 l/m 0 h 0 h 0 W/m 9,7 km/h (2 Bft) 95,74 %
28.04.2019 03:44 8,7 C 7,8 C 7,8 C 82 % 1013,2 hPa 0,0 l/m 0 h 0 h 0 W/m 12,9 km/h (3 Bft) 95,65 %
28.04.2019 03:46 8,7 C 7,8 C 7,8 C 82 % 1013,2 hPa 0,0 l/m 0 h 0 h 0 W/m 16,1 km/h (3 Bft) 97,87 %
28.04.2019 03:48 8,7 C 7,8 C 7,8 C 82 % 1013,2 hPa 0,0 l/m 0 h 0 h 0 W/m 9,7 km/h (2 Bft) 97,87 %
28.04.2019 03:50 8,7 C 7,8 C 7,8 C 82 % 1013,2 hPa 0,0 l/m 0 h 0 h 0 W/m 16,1 km/h (3 Bft) 97,87 %
28.04.2019 03:52 8,7 C 7,8 C 7,8 C 82 % 1013,2 hPa 0,0 l/m 0 h 0 h 0 W/m 12,9 km/h (3 Bft) 95,74 %
28.04.2019 03:54 8,7 C 7,8 C 7,8 C 82 % 1013,2 hPa 0,0 l/m 0 h 0 h 0 W/m 12,9 km/h (3 Bft) 97,87 %
28.04.2019 03:56 8,7 C 7,8 C 7,8 C 82 % 1013,2 hPa 0,0 l/m 0 h 0 h 0 W/m 6,4 km/h (2 Bft) 97,83 %
28.04.2019 03:58 8,7 C 7,8 C 7,8 C 82 % 1013,2 hPa 0,0 l/m 0 h 0 h 0 W/m 9,7 km/h (2 Bft) 95,74 %
28.04.2019 04:00 8,7 C 7,8 C 7,8 C 82 % 1013,2 hPa 0,0 l/m 0 h 0 h 0 W/m 16,1 km/h (3 Bft) 97,87 %
28.04.2019 04:02 8,7 C 7,8 C 7,8 C 82 % 1013,2 hPa 0,0 l/m 0 h 0 h 0 W/m 12,9 km/h (3 Bft) 80,00 %
28.04.2019 04:04 8,6 C 7,8 C 7,8 C 82 % 1013,2 hPa 0,0 l/m 0 h 0 h 0 W/m 9,7 km/h (2 Bft) 95,74 %
28.04.2019 04:06 8,6 C 7,8 C 7,8 C 82 % 1013,3 hPa 0,0 l/m 0 h 0 h 0 W/m 16,1 km/h (3 Bft) 100,00 %
28.04.2019 04:11 8,6 C 7,8 C 7,8 C 82 % 1013,2 hPa 0,0 l/m 0 h 0 h 0 W/m 19,3 km/h (3 Bft) 96,97 %
28.04.2019 04:12 8,6 C 7,8 C 7,8 C 82 % 1013,2 hPa 0,0 l/m 0 h 0 h 0 W/m 22,5 km/h (4 Bft) 95,65 %
28.04.2019 04:14 8,6 C 7,8 C 7,8 C 82 % 1013,2 hPa 0,0 l/m 0 h 0 h 0 W/m 16,1 km/h (3 Bft) 97,87 %
28.04.2019 04:16 8,6 C 7,8 C 7,2 C 82 % 1013,3 hPa 0,0 l/m 0 h 0 h 0 W/m 12,9 km/h (3 Bft) 97,87 %
28.04.2019 04:18 8,6 C 7,8 C 7,2 C 82 % 1013,3 hPa 0,0 l/m 0 h 0 h 0 W/m 3,2 km/h (1 Bft) 28,57 %
28.04.2019 04:20 8,6 C 7,8 C 7,2 C 82 % 1013,3 hPa 0,0 l/m 0 h 0 h 0 W/m 19,3 km/h (3 Bft) 100,00 %
28.04.2019 04:22 8,6 C 7,8 C 7,2 C 82 % 1013,3 hPa 0,0 l/m 0 h 0 h 0 W/m 16,1 km/h (3 Bft) 97,87 %
28.04.2019 04:24 8,6 C 7,8 C 7,8 C 82 % 1013,3 hPa 0,0 l/m 0 h 0 h 0 W/m 16,1 km/h (3 Bft) 97,87 %
28.04.2019 04:26 8,6 C 7,8 C 7,8 C 82 % 1013,3 hPa 0,0 l/m 0 h 0 h 0 W/m 12,9 km/h (3 Bft) 95,74 %
28.04.2019 04:28 8,6 C 7,8 C 7,8 C 82 % 1013,3 hPa 0,0 l/m 0 h 0 h 0 W/m 19,3 km/h (3 Bft) 97,87 %
28.04.2019 04:30 8,6 C 7,8 C 7,2 C 82 % 1013,3 hPa 0,0 l/m 0 h 0 h 0 W/m 12,9 km/h (3 Bft) 100,00 %
28.04.2019 04:32 8,5 C 7,8 C 7,2 C 82 % 1013,3 hPa 0,0 l/m 0 h 0 h 0 W/m 16,1 km/h (3 Bft) 100,00 %
28.04.2019 04:34 8,5 C 7,8 C 7,2 C 82 % 1013,3 hPa 0,0 l/m 0 h 0 h 0 W/m 12,9 km/h (3 Bft) 100,00 %
28.04.2019 04:36 8,5 C 7,8 C 7,2 C 82 % 1013,4 hPa 0,0 l/m 0 h 0 h 0 W/m 9,7 km/h (2 Bft) 97,87 %
28.04.2019 04:38 8,5 C 7,8 C 7,2 C 83 % 1013,3 hPa 0,0 l/m 0 h 0 h 0 W/m 16,1 km/h (3 Bft) 95,74 %
28.04.2019 04:40 8,5 C 7,8 C 7,2 C 83 % 1013,4 hPa 0,0 l/m 0 h 0 h 0 W/m 16,1 km/h (3 Bft) 100,00 %
28.04.2019 04:42 8,5 C 7,8 C 7,2 C 83 % 1013,4 hPa 0,0 l/m 0 h 0 h 0 W/m 12,9 km/h (3 Bft) 100,00 %
28.04.2019 04:44 8,5 C 7,8 C 7,2 C 83 % 1013,4 hPa 0,0 l/m 0 h 0 h 0 W/m 12,9 km/h (3 Bft) 100,00 %
28.04.2019 04:46 8,4 C 7,8 C 7,2 C 83 % 1013,5 hPa 0,0 l/m 0 h 0 h 0 W/m 19,3 km/h (3 Bft) 100,00 %
28.04.2019 04:48 8,4 C 7,8 C 7,2 C 83 % 1013,5 hPa 0,0 l/m 0 h 0 h 0 W/m 9,7 km/h (2 Bft) 97,83 %
28.04.2019 04:50 8,4 C 7,8 C 7,2 C 83 % 1013,5 hPa 0,0 l/m 0 h 0 h 0 W/m 9,7 km/h (2 Bft) 100,00 %
28.04.2019 04:52 8,4 C 7,8 C 7,2 C 83 % 1013,5 hPa 0,0 l/m 0 h 0 h 0 W/m 19,3 km/h (3 Bft) 100,00 %
28.04.2019 04:54 8,4 C 7,8 C 7,2 C 83 % 1013,5 hPa 0,0 l/m 0 h 0 h 0 W/m 9,7 km/h (2 Bft) 95,74 %
28.04.2019 04:56 8,4 C 7,8 C 7,2 C 83 % 1013,5 hPa 0,0 l/m 0 h 0 h 0 W/m 12,9 km/h (3 Bft) 97,87 %
28.04.2019 04:58 8,4 C 7,8 C 7,2 C 83 % 1013,5 hPa 0,0 l/m 0 h 0 h 0 W/m 12,9 km/h (3 Bft) 95,74 %
28.04.2019 05:00 8,4 C 7,8 C 7,2 C 83 % 1013,5 hPa 0,0 l/m 0 h 0 h 0 W/m 16,1 km/h (3 Bft) 97,83 %
28.04.2019 05:02 8,4 C 7,8 C 7,2 C 83 % 1013,5 hPa 0,0 l/m 0 h 0 h 0 W/m 9,7 km/h (2 Bft) 97,87 %
28.04.2019 05:04 8,4 C 7,8 C 7,2 C 83 % 1013,6 hPa 0,0 l/m 0 h 0 h 0 W/m 16,1 km/h (3 Bft) 95,74 %
28.04.2019 05:05 8,4 C 7,8 C 7,2 C 83 % 1013,5 hPa 0,0 l/m 0 h 0 h 0 W/m 16,1 km/h (3 Bft) 99,12 %
28.04.2019 05:10 8,4 C 7,8 C 7,2 C 83 % 1013,5 hPa 0,0 l/m 0 h 0 h 0 W/m 12,9 km/h (3 Bft) 99,12 %
28.04.2019 05:12 8,4 C 7,8 C 7,2 C 83 % 1013,5 hPa 0,0 l/m 0 h 0 h 0 W/m 9,7 km/h (2 Bft) 91,67 %
28.04.2019 05:14 8,4 C 7,8 C 7,2 C 83 % 1013,5 hPa 0,0 l/m 0 h 0 h 0 W/m 12,9 km/h (3 Bft) 97,37 %
28.04.2019 05:19 8,3 C 7,8 C 7,2 C 83 % 1013,4 hPa 0,0 l/m 0 h 0 h 0 W/m 16,1 km/h (3 Bft) 98,15 %
28.04.2019 05:20 8,3 C 7,8 C 7,2 C 83 % 1013,4 hPa 0,0 l/m 0 h 0 h 0 W/m 9,7 km/h (2 Bft) 91,67 %
28.04.2019 05:22 8,3 C 7,8 C 7,2 C 83 % 1013,4 hPa 0,0 l/m 0 h 0 h 0 W/m 12,9 km/h (3 Bft) 95,74 %
28.04.2019 05:24 8,3 C 7,8 C 7,2 C 83 % 1013,5 hPa 0,0 l/m 0 h 0 h 0 W/m 12,9 km/h (3 Bft) 95,74 %
28.04.2019 05:26 8,3 C 7,8 C 7,2 C 83 % 1013,5 hPa 0,0 l/m 0 h 0 h 0 W/m 9,7 km/h (2 Bft) 93,48 %
28.04.2019 05:28 8,3 C 7,8 C 7,2 C 83 % 1013,4 hPa 0,0 l/m 0 h 0 h 0 W/m 16,1 km/h (3 Bft) 95,74 %
28.04.2019 05:30 8,3 C 7,8 C 7,2 C 83 % 1013,4 hPa 0,0 l/m 0 h 0 h 0 W/m 19,3 km/h (3 Bft) 93,62 %
28.04.2019 05:32 8,3 C 7,8 C 7,2 C 83 % 1013,5 hPa 0,0 l/m 0 h 0 h 0 W/m 22,5 km/h (4 Bft) 95,74 %
28.04.2019 05:34 8,3 C 7,8 C 7,2 C 84 % 1013,6 hPa 0,0 l/m 0 h 0 h 0 W/m 12,9 km/h (3 Bft) 92,73 %
28.04.2019 05:36 8,3 C 7,8 C 7,2 C 84 % 1013,6 hPa 0,0 l/m 0 h 0 h 0 W/m 16,1 km/h (3 Bft) 95,74 %
28.04.2019 05:38 8,3 C 7,8 C 7,2 C 84 % 1013,5 hPa 0,0 l/m 0 h 0 h 0 W/m 12,9 km/h (3 Bft) 96,00 %
28.04.2019 05:40 8,3 C 7,8 C 7,2 C 84 % 1013,6 hPa 0,0 l/m 0 h 0 h 0 W/m 16,1 km/h (3 Bft) 97,87 %
28.04.2019 05:42 8,3 C 7,8 C 7,2 C 84 % 1013,6 hPa 0,0 l/m 0 h 0 h 0 W/m 12,9 km/h (3 Bft) 97,87 %
28.04.2019 05:44 8,2 C 7,2 C 7,2 C 84 % 1013,6 hPa 0,0 l/m 0 h 0 h 0 W/m 9,7 km/h (2 Bft) 97,83 %
28.04.2019 05:46 8,2 C 7,2 C 7,2 C 84 % 1013,6 hPa 0,0 l/m 0 h 0 h 0 W/m 9,7 km/h (2 Bft) 95,74 %
28.04.2019 05:48 8,2 C 7,2 C 7,2 C 84 % 1013,5 hPa 0,0 l/m 0 h 0 h 0 W/m 12,9 km/h (3 Bft) 97,87 %
28.04.2019 05:50 8,2 C 7,2 C 7,2 C 84 % 1013,6 hPa 0,0 l/m 0 h 0 h 0 W/m 9,7 km/h (2 Bft) 97,87 %
28.04.2019 05:52 8,2 C 7,2 C 7,2 C 84 % 1013,6 hPa 0,0 l/m 0 h 0 h 0 W/m 6,4 km/h (2 Bft) 97,87 %
28.04.2019 05:54 8,2 C 7,2 C 7,2 C 84 % 1013,6 hPa 0,0 l/m 0 h 0 h 0 W/m 9,7 km/h (2 Bft) 95,74 %
28.04.2019 05:56 8,2 C 7,2 C 7,2 C 84 % 1013,6 hPa 0,0 l/m 0 h 0 h 0 W/m 9,7 km/h (2 Bft) 97,83 %
28.04.2019 05:58 8,2 C 7,2 C 7,2 C 84 % 1013,6 hPa 0,0 l/m 0 h 0 h 0 W/m 19,3 km/h (3 Bft) 100,00 %
28.04.2019 06:00 8,2 C 7,2 C 7,2 C 84 % 1013,6 hPa 0,0 l/m 0 h 0 h 0 W/m 9,7 km/h (2 Bft) 100,00 %
28.04.2019 06:02 8,2 C 7,2 C 7,2 C 84 % 1013,7 hPa 0,0 l/m 0 h 0 h 0 W/m 9,7 km/h (2 Bft) 100,00 %
28.04.2019 06:04 8,1 C 7,2 C 7,2 C 84 % 1013,7 hPa 0,0 l/m 0 h 0 h 0 W/m 9,7 km/h (2 Bft) 97,87 %
28.04.2019 06:08 8,1 C 7,2 C 7,2 C 84 % 1013,7 hPa 0,0 l/m 0 h 0 h 0 W/m 12,9 km/h (3 Bft) 100,00 %
28.04.2019 06:10 8,1 C 7,2 C 7,2 C 84 % 1013,6 hPa 0,0 l/m 0 h 0 h 0 W/m 9,7 km/h (2 Bft) 97,87 %
28.04.2019 06:12 8,1 C 7,2 C 7,2 C 84 % 1013,7 hPa 0,0 l/m 0 h 0 h 0 W/m 9,7 km/h (2 Bft) 100,00 %
28.04.2019 06:14 8,1 C 7,2 C 7,2 C 84 % 1013,6 hPa 0,0 l/m 0 h 0 h 0 W/m 16,1 km/h (3 Bft) 100,00 %
28.04.2019 06:16 8,1 C 7,2 C 7,2 C 84 % 1013,7 hPa 0,0 l/m 0 h 0 h 0 W/m 16,1 km/h (3 Bft) 95,74 %
28.04.2019 06:18 8,1 C 7,2 C 7,2 C 84 % 1013,7 hPa 0,0 l/m 0 h 0 h 0 W/m 19,3 km/h (3 Bft) 100,00 %
28.04.2019 06:20 8,1 C 7,2 C 7,2 C 84 % 1013,6 hPa 0,0 l/m 0 h 0 h 0 W/m 9,7 km/h (2 Bft) 100,00 %
28.04.2019 06:22 8,1 C 7,2 C 7,2 C 84 % 1013,7 hPa 0,0 l/m 0 h 0 h 0 W/m 16,1 km/h (3 Bft) 100,00 %
28.04.2019 06:24 8,1 C 7,2 C 7,2 C 84 % 1013,6 hPa 0,0 l/m 0 h 0 h 0 W/m 9,7 km/h (2 Bft) 100,00 %
28.04.2019 06:26 8,1 C 7,2 C 7,2 C 84 % 1013,6 hPa 0,0 l/m 0 h 0 h 2 W/m 9,7 km/h (2 Bft) 100,00 %
28.04.2019 06:28 8,0 C 7,2 C 7,2 C 84 % 1013,6 hPa 0,0 l/m 0 h 0 h 5 W/m 16,1 km/h (3 Bft) 100,00 %
28.04.2019 06:30 8,0 C 7,2 C 7,2 C 84 % 1013,6 hPa 0,0 l/m 0 h 0 h 6 W/m 16,1 km/h (3 Bft) 100,00 %
28.04.2019 06:32 8,0 C 7,2 C 7,2 C 85 % 1013,6 hPa 0,0 l/m 0 h 0 h 8 W/m 9,7 km/h (2 Bft) 100,00 %
28.04.2019 06:34 8,0 C 7,2 C 7,2 C 85 % 1013,7 hPa 0,0 l/m 0 h 0 h 10 W/m 16,1 km/h (3 Bft) 100,00 %
28.04.2019 06:36 8,0 C 7,2 C 7,2 C 85 % 1013,7 hPa 0,0 l/m 0 h 0 h 11 W/m 9,7 km/h (2 Bft) 100,00 %
28.04.2019 06:38 8,0 C 7,2 C 7,2 C 85 % 1013,7 hPa 0,0 l/m 0 h 0 h 12 W/m 12,9 km/h (3 Bft) 100,00 %
28.04.2019 06:40 8,0 C 7,2 C 7,2 C 85 % 1013,7 hPa 0,0 l/m 0 h 0 h 13 W/m 16,1 km/h (3 Bft) 100,00 %
28.04.2019 06:42 8,0 C 7,2 C 7,2 C 85 % 1013,7 hPa 0,0 l/m 0 h 0 h 14 W/m 9,7 km/h (2 Bft) 100,00 %
28.04.2019 06:44 8,0 C 7,2 C 7,2 C 85 % 1013,8 hPa 0,0 l/m 0 h 0 h 16 W/m 16,1 km/h (3 Bft) 100,00 %
28.04.2019 06:46 7,9 C 7,2 C 7,2 C 85 % 1013,7 hPa 0,0 l/m 0 h 0 h 17 W/m 12,9 km/h (3 Bft) 100,00 %
28.04.2019 06:48 8,0 C 7,2 C 7,2 C 85 % 1013,7 hPa 0,0 l/m 0 h 0 h 18 W/m 9,7 km/h (2 Bft) 100,00 %
28.04.2019 06:50 7,9 C 7,2 C 7,2 C 85 % 1013,9 hPa 0,0 l/m 0 h 0 h 20 W/m 12,9 km/h (3 Bft) 100,00 %
28.04.2019 06:52 7,9 C 7,2 C 7,2 C 85 % 1013,8 hPa 0,0 l/m 0 h 0 h 23 W/m 12,9 km/h (3 Bft) 100,00 %
28.04.2019 06:54 7,9 C 7,2 C 7,2 C 85 % 1013,9 hPa 0,0 l/m 0 h 0 h 24 W/m 19,3 km/h (3 Bft) 100,00 %
28.04.2019 06:56 7,9 C 7,2 C 7,2 C 85 % 1014,0 hPa 0,0 l/m 0 h 0 h 25 W/m 22,5 km/h (4 Bft) 97,87 %
28.04.2019 06:58 7,9 C 7,2 C 7,2 C 85 % 1013,9 hPa 0,0 l/m 0 h 0 h 26 W/m 12,9 km/h (3 Bft) 100,00 %
28.04.2019 07:00 7,9 C 7,2 C 7,2 C 85 % 1014,0 hPa 0,0 l/m 0 h 0 h 28 W/m 16,1 km/h (3 Bft) 97,87 %
28.04.2019 07:02 7,9 C 7,2 C 7,2 C 85 % 1014,0 hPa 0,0 l/m 0 h 0 h 30 W/m 16,1 km/h (3 Bft) 97,87 %
28.04.2019 07:04 7,9 C 7,8 C 7,2 C 85 % 1014,0 hPa 0,0 l/m 0 h 0 h 32 W/m 12,9 km/h (3 Bft) 94,29 %
28.04.2019 07:06 7,9 C 7,8 C 7,2 C 85 % 1014,0 hPa 0,0 l/m 0 h 0 h 33 W/m 12,9 km/h (3 Bft) 100,00 %
28.04.2019 07:08 7,9 C 7,8 C 7,2 C 85 % 1014,0 hPa 0,0 l/m 0 h 0 h 34 W/m 6,4 km/h (2 Bft) 97,22 %
28.04.2019 07:10 7,9 C 7,8 C 7,2 C 85 % 1014,1 hPa 0,0 l/m 0 h 0 h 35 W/m 9,7 km/h (2 Bft) 97,83 %
28.04.2019 07:12 7,9 C 7,8 C 7,2 C 85 % 1014,1 hPa 0,0 l/m 0 h 0 h 38 W/m 9,7 km/h (2 Bft) 97,87 %
28.04.2019 07:14 7,9 C 7,8 C 7,2 C 85 % 1014,2 hPa 0,0 l/m 0 h 0 h 39 W/m 16,1 km/h (3 Bft) 96,43 %
28.04.2019 07:16 7,9 C 7,8 C 7,2 C 85 % 1014,2 hPa 0,0 l/m 0 h 0 h 40 W/m 12,9 km/h (3 Bft) 97,87 %
28.04.2019 07:18 7,9 C 7,8 C 7,2 C 85 % 1014,2 hPa 0,0 l/m 0 h 0 h 43 W/m 9,7 km/h (2 Bft) 97,83 %
28.04.2019 07:20 7,9 C 7,8 C 7,2 C 85 % 1014,2 hPa 0,0 l/m 0 h 0 h 46 W/m 9,7 km/h (2 Bft) 97,87 %
28.04.2019 07:22 7,9 C 7,8 C 7,2 C 85 % 1014,3 hPa 0,0 l/m 0 h 0 h 47 W/m 9,7 km/h (2 Bft) 98,00 %
28.04.2019 07:24 7,9 C 7,8 C 7,2 C 85 % 1014,4 hPa 0,0 l/m 0 h 0 h 50 W/m 3,2 km/h (1 Bft) 95,74 %
28.04.2019 07:26 7,9 C 7,8 C 7,2 C 85 % 1014,4 hPa 0,0 l/m 0 h 0 h 51 W/m 6,4 km/h (2 Bft) 97,87 %
28.04.2019 07:28 7,9 C 7,8 C 7,2 C 85 % 1014,4 hPa 0,0 l/m 0 h 0 h 53 W/m 6,4 km/h (2 Bft) 95,65 %
28.04.2019 07:30 7,9 C 7,8 C 7,2 C 85 % 1014,4 hPa 0,0 l/m 0 h 0 h 54 W/m 6,4 km/h (2 Bft) 97,87 %
28.04.2019 07:32 8,0 C 7,8 C 7,2 C 85 % 1014,5 hPa 0,0 l/m 0 h 0 h 54 W/m 12,9 km/h (3 Bft) 100,00 %
28.04.2019 07:34 8,0 C 7,8 C 7,2 C 85 % 1014,4 hPa 0,0 l/m 0 h 0 h 56 W/m 12,9 km/h (3 Bft) 97,37 %
28.04.2019 07:36 8,0 C 7,8 C 7,2 C 85 % 1014,5 hPa 0,0 l/m 0 h 0 h 56 W/m 6,4 km/h (2 Bft) 95,74 %
28.04.2019 07:38 8,0 C 7,8 C 7,2 C 85 % 1014,4 hPa 0,0 l/m 0 h 0 h 58 W/m 9,7 km/h (2 Bft) 93,62 %
28.04.2019 07:40 8,0 C 7,8 C 7,2 C 85 % 1014,4 hPa 0,0 l/m 0 h 0 h 58 W/m 6,4 km/h (2 Bft) 95,74 %
28.04.2019 07:42 8,0 C 7,8 C 7,2 C 85 % 1014,5 hPa 0,0 l/m 0 h 0 h 61 W/m 9,7 km/h (2 Bft) 93,62 %
28.04.2019 07:44 8,0 C 7,8 C 7,2 C 85 % 1014,5 hPa 0,0 l/m 0 h 0 h 62 W/m 9,7 km/h (2 Bft) 95,65 %
28.04.2019 07:46 8,1 C 7,8 C 7,8 C 85 % 1014,5 hPa 0,0 l/m 0 h 0 h 67 W/m 9,7 km/h (2 Bft) 95,74 %
28.04.2019 07:48 8,1 C 7,8 C 7,8 C 85 % 1014,5 hPa 0,0 l/m 0 h 0 h 70 W/m 6,4 km/h (2 Bft) 93,62 %
28.04.2019 07:50 8,1 C 8,3 C 7,8 C 85 % 1014,6 hPa 0,0 l/m 0 h 0 h 71 W/m 9,7 km/h (2 Bft) 91,49 %
28.04.2019 07:52 8,1 C 7,8 C 7,8 C 85 % 1014,5 hPa 0,0 l/m 0 h 0 h 72 W/m 12,9 km/h (3 Bft) 94,55 %
28.04.2019 07:54 8,1 C 7,8 C 7,8 C 85 % 1014,6 hPa 0,0 l/m 0 h 0 h 72 W/m 12,9 km/h (3 Bft) 94,74 %
28.04.2019 07:56 8,1 C 8,3 C 7,8 C 85 % 1014,6 hPa 0,0 l/m 0 h 0 h 74 W/m 12,9 km/h (3 Bft) 89,36 %
28.04.2019 07:58 8,1 C 7,8 C 7,8 C 85 % 1014,6 hPa 0,0 l/m 0 h 0 h 74 W/m 12,9 km/h (3 Bft) 91,49 %
28.04.2019 08:00 8,1 C 7,8 C 7,8 C 84 % 1014,6 hPa 0,0 l/m 0 h 0 h 75 W/m 9,7 km/h (2 Bft) 93,62 %
28.04.2019 08:02 8,2 C 7,8 C 7,8 C 84 % 1014,7 hPa 0,0 l/m 0 h 0 h 76 W/m 16,1 km/h (3 Bft) 93,62 %
28.04.2019 08:04 8,1 C 8,3 C 7,8 C 84 % 1014,6 hPa 0,0 l/m 0 h 0 h 78 W/m 12,9 km/h (3 Bft) 95,74 %
28.04.2019 08:06 8,2 C 8,3 C 7,8 C 84 % 1014,6 hPa 0,0 l/m 0 h 0 h 83 W/m 9,7 km/h (2 Bft) 93,62 %
28.04.2019 08:08 8,2 C 8,3 C 7,8 C 84 % 1014,6 hPa 0,0 l/m 0 h 0 h 87 W/m 12,9 km/h (3 Bft) 95,65 %
28.04.2019 08:10 8,2 C 8,3 C 7,8 C 84 % 1014,6 hPa 0,0 l/m 0 h 0 h 91 W/m 12,9 km/h (3 Bft) 93,62 %
28.04.2019 08:12 8,2 C 8,3 C 7,8 C 84 % 1014,7 hPa 0,0 l/m 0 h 0 h 93 W/m 16,1 km/h (3 Bft) 95,74 %
28.04.2019 08:14 8,2 C 8,3 C 7,8 C 84 % 1014,6 hPa 0,0 l/m 0 h 0 h 95 W/m 9,7 km/h (2 Bft) 95,74 %
28.04.2019 08:16 8,2 C 8,3 C 7,8 C 84 % 1014,7 hPa 0,0 l/m 0 h 0 h 97 W/m 16,1 km/h (3 Bft) 93,62 %
28.04.2019 08:18 8,2 C 8,3 C 7,8 C 84 % 1014,6 hPa 0,0 l/m 0 h 0 h 99 W/m 12,9 km/h (3 Bft) 97,87 %
28.04.2019 08:20 8,3 C 8,3 C 7,8 C 84 % 1014,7 hPa 0,0 l/m 0 h 0 h 106 W/m 12,9 km/h (3 Bft) 96,36 %
28.04.2019 08:22 8,3 C 8,3 C 7,8 C 84 % 1014,6 hPa 0,0 l/m 0 h 0 h 113 W/m 12,9 km/h (3 Bft) 97,87 %
28.04.2019 08:24 8,3 C 8,3 C 7,8 C 84 % 1014,6 hPa 0,0 l/m 0 h 0 h 117 W/m 12,9 km/h (3 Bft) 97,87 %
28.04.2019 08:26 8,3 C 8,3 C 7,8 C 84 % 1014,7 hPa 0,0 l/m 0 h 0 h 120 W/m 19,3 km/h (3 Bft) 97,83 %
28.04.2019 08:28 8,3 C 8,3 C 7,8 C 84 % 1014,7 hPa 0,0 l/m 0 h 0 h 121 W/m 12,9 km/h (3 Bft) 97,87 %
28.04.2019 08:30 8,3 C 8,9 C 8,3 C 84 % 1014,7 hPa 0,0 l/m 0 h 0 h 126 W/m 16,1 km/h (3 Bft) 97,37 %
28.04.2019 08:32 8,4 C 8,3 C 7,8 C 84 % 1014,8 hPa 0,0 l/m 0 h 2 h 127 W/m 22,5 km/h (4 Bft) 95,74 %
28.04.2019 08:34 8,4 C 8,3 C 7,8 C 84 % 1014,8 hPa 0,2 l/m 0 h 2 h 127 W/m 29,0 km/h (5 Bft) 97,87 %
28.04.2019 08:36 8,4 C 8,3 C 7,8 C 84 % 1014,8 hPa 0,0 l/m 0 h 0 h 129 W/m 9,7 km/h (2 Bft) 97,87 %
28.04.2019 08:38 8,4 C 8,3 C 7,8 C 84 % 1014,9 hPa 0,0 l/m 0 h 0 h 128 W/m 9,7 km/h (2 Bft) 97,87 %
28.04.2019 08:40 8,4 C 8,9 C 8,3 C 84 % 1014,8 hPa 0,0 l/m 0 h 0 h 136 W/m 22,5 km/h (4 Bft) 95,74 %
28.04.2019 08:42 8,4 C 8,9 C 8,3 C 84 % 1014,9 hPa 0,0 l/m 0 h 0 h 149 W/m 22,5 km/h (4 Bft) 97,83 %
28.04.2019 08:44 8,4 C 8,9 C 8,3 C 84 % 1014,8 hPa 0,0 l/m 0 h 0 h 161 W/m 12,9 km/h (3 Bft) 97,87 %
28.04.2019 08:46 8,4 C 9,4 C 8,3 C 84 % 1014,9 hPa 0,0 l/m 0 h 0 h 170 W/m 12,9 km/h (3 Bft) 97,87 %
28.04.2019 08:48 8,5 C 9,4 C 8,9 C 84 % 1014,9 hPa 0,0 l/m 2 h 0 h 194 W/m 16,1 km/h (3 Bft) 97,87 %
28.04.2019 08:50 8,5 C 9,4 C 8,9 C 84 % 1014,9 hPa 0,0 l/m 2 h 0 h 206 W/m 16,1 km/h (3 Bft) 95,74 %
28.04.2019 08:52 8,6 C 9,4 C 8,9 C 84 % 1014,9 hPa 0,0 l/m 2 h 0 h 210 W/m 25,7 km/h (4 Bft) 95,74 %
28.04.2019 08:54 8,6 C 10,0 C 8,9 C 84 % 1014,9 hPa 0,0 l/m 2 h 0 h 255 W/m 16,1 km/h (3 Bft) 97,83 %
28.04.2019 08:56 8,6 C 10,6 C 9,4 C 84 % 1014,9 hPa 0,0 l/m 2 h 0 h 264 W/m 12,9 km/h (3 Bft) 97,87 %
28.04.2019 08:58 8,7 C 11,1 C 9,4 C 84 % 1014,9 hPa 0,0 l/m 2 h 0 h 282 W/m 9,7 km/h (2 Bft) 100,00 %
28.04.2019 09:00 8,7 C 11,7 C 10,0 C 84 % 1014,9 hPa 0,0 l/m 2 h 0 h 263 W/m 16,1 km/h (3 Bft) 100,00 %
28.04.2019 09:02 8,8 C 12,8 C 10,6 C 84 % 1014,9 hPa 0,0 l/m 2 h 0 h 294 W/m 12,9 km/h (3 Bft) 100,00 %
28.04.2019 09:04 8,9 C 12,2 C 11,1 C 84 % 1014,9 hPa 0,0 l/m 2 h 0 h 320 W/m 12,9 km/h (3 Bft) 100,00 %
28.04.2019 09:06 9,0 C 11,7 C 11,1 C 84 % 1015,0 hPa 0,0 l/m 2 h 0 h 232 W/m 12,9 km/h (3 Bft) 97,87 %
28.04.2019 09:08 9,1 C 11,1 C 10,6 C 84 % 1015,0 hPa 0,0 l/m 2 h 0 h 213 W/m 12,9 km/h (3 Bft) 100,00 %
28.04.2019 09:10 9,1 C 10,6 C 10,0 C 83 % 1015,0 hPa 0,0 l/m 2 h 0 h 220 W/m 12,9 km/h (3 Bft) 97,87 %
28.04.2019 09:12 9,2 C 10,6 C 10,0 C 83 % 1014,9 hPa 0,0 l/m 0 h 0 h 191 W/m 9,7 km/h (2 Bft) 95,74 %
28.04.2019 09:14 9,2 C 11,1 C 10,0 C 83 % 1014,9 hPa 0,0 l/m 0 h 0 h 206 W/m 16,1 km/h (3 Bft) 100,00 %
28.04.2019 09:16 9,3 C 10,6 C 10,0 C 82 % 1014,9 hPa 0,0 l/m 0 h 0 h 202 W/m 22,5 km/h (4 Bft) 100,00 %
28.04.2019 09:18 9,3 C 11,1 C 10,6 C 82 % 1015,0 hPa 0,0 l/m 2 h 0 h 231 W/m 16,1 km/h (3 Bft) 100,00 %
28.04.2019 09:20 9,3 C 13,3 C 11,7 C 82 % 1014,8 hPa 0,0 l/m 2 h 0 h 440 W/m 12,9 km/h (3 Bft) 100,00 %
28.04.2019 09:22 9,4 C 13,3 C 12,2 C 82 % 1014,8 hPa 0,0 l/m 2 h 0 h 388 W/m 16,1 km/h (3 Bft) 100,00 %
28.04.2019 09:24 9,5 C 14,4 C 13,3 C 82 % 1014,9 hPa 0,0 l/m 2 h 0 h 388 W/m 19,3 km/h (3 Bft) 100,00 %
28.04.2019 09:26 9,6 C 13,9 C 12,8 C 82 % 1014,8 hPa 0,0 l/m 2 h 0 h 528 W/m 19,3 km/h (3 Bft) 100,00 %
28.04.2019 09:28 9,7 C 12,8 C 12,8 C 81 % 1014,8 hPa 0,0 l/m 2 h 0 h 383 W/m 19,3 km/h (3 Bft) 100,00 %
28.04.2019 09:30 9,8 C 13,9 C 13,3 C 81 % 1014,7 hPa 0,0 l/m 2 h 0 h 403 W/m 16,1 km/h (3 Bft) 100,00 %
28.04.2019 09:32 9,9 C 13,9 C 12,8 C 80 % 1014,9 hPa 0,0 l/m 2 h 0 h 563 W/m 25,7 km/h (4 Bft) 100,00 %
28.04.2019 09:34 10,0 C 12,8 C 12,2 C 80 % 1014,8 hPa 0,0 l/m 2 h 0 h 371 W/m 19,3 km/h (3 Bft) 100,00 %
28.04.2019 09:36 10,1 C 12,2 C 11,7 C 79 % 1015,1 hPa 0,0 l/m 2 h 0 h 336 W/m 22,5 km/h (4 Bft) 100,00 %
28.04.2019 09:38 10,1 C 12,2 C 11,1 C 79 % 1015,1 hPa 0,0 l/m 2 h 0 h 309 W/m 16,1 km/h (3 Bft) 100,00 %
28.04.2019 09:40 10,2 C 11,1 C 10,0 C 79 % 1015,1 hPa 0,0 l/m 2 h 0 h 272 W/m 16,1 km/h (3 Bft) 100,00 %
28.04.2019 09:42 10,1 C 10,0 C 9,4 C 79 % 1015,1 hPa 0,0 l/m 0 h 0 h 148 W/m 25,7 km/h (4 Bft) 100,00 %
28.04.2019 09:44 10,1 C 9,4 C 9,4 C 78 % 1015,2 hPa 0,0 l/m 0 h 0 h 150 W/m 19,3 km/h (3 Bft) 100,00 %
28.04.2019 09:46 10,1 C 10,6 C 10,0 C 78 % 1015,2 hPa 0,0 l/m 0 h 0 h 197 W/m 9,7 km/h (2 Bft) 100,00 %
28.04.2019 09:48 10,1 C 10,6 C 10,0 C 78 % 1015,2 hPa 0,0 l/m 0 h 0 h 204 W/m 19,3 km/h (3 Bft) 100,00 %
28.04.2019 09:50 10,1 C 10,6 C 10,0 C 78 % 1015,2 hPa 0,0 l/m 0 h 0 h 179 W/m 12,9 km/h (3 Bft) 100,00 %
28.04.2019 09:52 10,1 C 10,0 C 9,4 C 78 % 1015,2 hPa 0,0 l/m 0 h 0 h 183 W/m 16,1 km/h (3 Bft) 100,00 %
28.04.2019 09:54 10,1 C 10,6 C 10,0 C 78 % 1015,2 hPa 0,0 l/m 0 h 0 h 202 W/m 16,1 km/h (3 Bft) 100,00 %
28.04.2019 09:56 10,0 C 10,6 C 10,0 C 79 % 1015,2 hPa 0,0 l/m 0 h 0 h 223 W/m 16,1 km/h (3 Bft) 100,00 %
28.04.2019 09:58 10,0 C 10,6 C 10,0 C 79 % 1015,2 hPa 0,0 l/m 0 h 0 h 201 W/m 16,1 km/h (3 Bft) 97,87 %
28.04.2019 10:00 10,0 C 10,0 C 9,4 C 79 % 1015,3 hPa 0,0 l/m 0 h 0 h 160 W/m 16,1 km/h (3 Bft) 97,87 %
28.04.2019 10:02 9,9 C 10,0 C 9,4 C 79 % 1015,2 hPa 0,0 l/m 0 h 0 h 157 W/m 12,9 km/h (3 Bft) 97,87 %
28.04.2019 10:04 9,9 C 10,0 C 9,4 C 79 % 1015,2 hPa 0,0 l/m 0 h 0 h 160 W/m 12,9 km/h (3 Bft) 95,65 %
28.04.2019 10:06 9,9 C 10,0 C 9,4 C 79 % 1015,3 hPa 0,0 l/m 0 h 0 h 158 W/m 16,1 km/h (3 Bft) 98,11 %
28.04.2019 10:08 9,9 C 10,0 C 9,4 C 79 % 1015,2 hPa 0,0 l/m 0 h 0 h 180 W/m 12,9 km/h (3 Bft) 97,56 %
28.04.2019 10:10 9,9 C 10,6 C 10,0 C 79 % 1015,2 hPa 0,0 l/m 0 h 0 h 212 W/m 9,7 km/h (2 Bft) 92,86 %
28.04.2019 10:12 9,9 C 12,2 C 11,1 C 79 % 1015,2 hPa 0,0 l/m 0 h 0 h 256 W/m 19,3 km/h (3 Bft) 95,65 %
28.04.2019 10:14 9,9 C 11,7 C 11,1 C 80 % 1015,3 hPa 0,0 l/m 2 h 0 h 364 W/m 9,7 km/h (2 Bft) 95,74 %
28.04.2019 10:16 10,0 C 11,7 C 10,6 C 79 % 1015,3 hPa 0,0 l/m 0 h 0 h 218 W/m 16,1 km/h (3 Bft) 93,62 %
28.04.2019 10:18 10,0 C 11,1 C 10,6 C 79 % 1015,3 hPa 0,0 l/m 0 h 0 h 202 W/m 6,4 km/h (2 Bft) 95,74 %
28.04.2019 10:20 10,0 C 11,7 C 10,6 C 79 % 1015,2 hPa 0,0 l/m 0 h 0 h 236 W/m 12,9 km/h (3 Bft) 93,62 %
28.04.2019 10:22 10,1 C 11,1 C 10,6 C 79 % 1015,3 hPa 0,0 l/m 0 h 0 h 274 W/m 22,5 km/h (4 Bft) 95,74 %
28.04.2019 10:24 10,1 C 11,1 C 10,6 C 79 % 1015,3 hPa 0,0 l/m 2 h 0 h 301 W/m 19,3 km/h (3 Bft) 93,48 %
28.04.2019 10:26 10,1 C 11,7 C 10,6 C 78 % 1015,2 hPa 0,0 l/m 2 h 0 h 313 W/m 16,1 km/h (3 Bft) 95,74 %
28.04.2019 10:28 10,1 C 11,7 C 11,1 C 78 % 1015,3 hPa 0,0 l/m 0 h 0 h 278 W/m 12,9 km/h (3 Bft) 95,74 %
28.04.2019 10:30 10,1 C 11,7 C 11,1 C 78 % 1015,2 hPa 0,0 l/m 2 h 0 h 344 W/m 19,3 km/h (3 Bft) 95,74 %
28.04.2019 10:32 10,2 C 11,7 C 11,1 C 78 % 1015,3 hPa 0,0 l/m 2 h 0 h 333 W/m 16,1 km/h (3 Bft) 95,74 %
28.04.2019 10:34 10,2 C 11,7 C 11,1 C 78 % 1015,3 hPa 0,0 l/m 0 h 0 h 265 W/m 19,3 km/h (3 Bft) 97,37 %
28.04.2019 10:36 10,2 C 12,2 C 11,7 C 78 % 1015,2 hPa 0,0 l/m 0 h 0 h 279 W/m 22,5 km/h (4 Bft) 96,55 %
28.04.2019 10:38 10,3 C 13,9 C 13,3 C 78 % 1015,3 hPa 0,0 l/m 2 h 0 h 430 W/m 12,9 km/h (3 Bft) 94,29 %
28.04.2019 10:40 10,4 C 12,2 C 11,7 C 77 % 1015,3 hPa 0,0 l/m 2 h 0 h 486 W/m 22,5 km/h (4 Bft) 97,87 %
28.04.2019 10:42 10,4 C 11,1 C 11,1 C 77 % 1015,4 hPa 0,0 l/m 0 h 0 h 299 W/m 22,5 km/h (4 Bft) 97,87 %
28.04.2019 10:44 10,4 C 11,1 C 10,6 C 76 % 1015,3 hPa 0,0 l/m 2 h 0 h 315 W/m 19,3 km/h (3 Bft) 97,87 %
28.04.2019 10:46 10,4 C 12,8 C 12,2 C 76 % 1015,4 hPa 0,0 l/m 2 h 0 h 383 W/m 16,1 km/h (3 Bft) 95,74 %
28.04.2019 10:48 10,5 C 13,9 C 13,3 C 77 % 1015,4 hPa 0,0 l/m 2 h 0 h 596 W/m 19,3 km/h (3 Bft) 95,74 %
28.04.2019 10:50 10,6 C 14,4 C 13,9 C 76 % 1015,3 hPa 0,0 l/m 2 h 0 h 704 W/m 29,0 km/h (5 Bft) 95,74 %
28.04.2019 10:52 10,7 C 14,4 C 13,9 C 76 % 1015,3 hPa 0,0 l/m 2 h 0 h 460 W/m 16,1 km/h (3 Bft) 97,83 %
28.04.2019 10:54 10,8 C 13,9 C 13,3 C 76 % 1015,4 hPa 0,0 l/m 2 h 0 h 435 W/m 19,3 km/h (3 Bft) 97,87 %
28.04.2019 10:56 10,8 C 12,8 C 12,8 C 76 % 1015,4 hPa 0,0 l/m 2 h 0 h 380 W/m 12,9 km/h (3 Bft) 97,87 %
28.04.2019 10:58 10,9 C 12,2 C 12,2 C 76 % 1015,4 hPa 0,0 l/m 0 h 0 h 249 W/m 16,1 km/h (3 Bft) 100,00 %
28.04.2019 11:00 10,9 C 11,7 C 11,7 C 76 % 1015,4 hPa 0,0 l/m 0 h 0 h 234 W/m 19,3 km/h (3 Bft) 100,00 %
28.04.2019 11:02 10,9 C 11,1 C 10,6 C 76 % 1015,5 hPa 0,0 l/m 0 h 0 h 252 W/m 25,7 km/h (4 Bft) 100,00 %
28.04.2019 11:04 10,9 C 10,6 C 10,6 C 76 % 1015,5 hPa 0,0 l/m 0 h 0 h 223 W/m 16,1 km/h (3 Bft) 100,00 %
28.04.2019 11:06 10,8 C 10,0 C 10,0 C 76 % 1015,6 hPa 0,0 l/m 0 h 0 h 193 W/m 22,5 km/h (4 Bft) 100,00 %
28.04.2019 11:08 10,7 C 10,0 C 9,4 C 76 % 1015,6 hPa 0,0 l/m 0 h 0 h 207 W/m 22,5 km/h (4 Bft) 100,00 %
28.04.2019 11:10 10,7 C 10,0 C 10,0 C 76 % 1015,7 hPa 0,0 l/m 0 h 0 h 253 W/m 19,3 km/h (3 Bft) 96,43 %
28.04.2019 11:12 10,6 C 10,6 C 10,0 C 76 % 1015,6 hPa 0,0 l/m 2 h 0 h 346 W/m 25,7 km/h (4 Bft) 100,00 %
28.04.2019 11:14 10,5 C 11,1 C 10,6 C 76 % 1015,7 hPa 0,0 l/m 2 h 0 h 401 W/m 29,0 km/h (5 Bft) 100,00 %
28.04.2019 11:16 10,4 C 11,7 C 10,6 C 76 % 1015,7 hPa 0,0 l/m 2 h 0 h 399 W/m 22,5 km/h (4 Bft) 100,00 %
28.04.2019 11:18 10,4 C 11,7 C 10,6 C 77 % 1015,7 hPa 0,0 l/m 2 h 0 h 380 W/m 22,5 km/h (4 Bft) 100,00 %
28.04.2019 11:20 10,4 C 11,7 C 11,1 C 77 % 1015,8 hPa 0,0 l/m 2 h 0 h 387 W/m 16,1 km/h (3 Bft) 100,00 %
28.04.2019 11:22 10,4 C 11,7 C 11,1 C 77 % 1015,8 hPa 0,0 l/m 2 h 0 h 379 W/m 19,3 km/h (3 Bft) 100,00 %
28.04.2019 11:24 10,4 C 12,2 C 11,7 C 78 % 1015,7 hPa 0,0 l/m 2 h 0 h 366 W/m 19,3 km/h (3 Bft) 100,00 %
28.04.2019 11:26 10,5 C 12,2 C 11,7 C 78 % 1015,7 hPa 0,0 l/m 2 h 0 h 364 W/m 22,5 km/h (4 Bft) 100,00 %
28.04.2019 11:28 10,5 C 12,2 C 11,7 C 77 % 1015,8 hPa 0,0 l/m 0 h 0 h 329 W/m 22,5 km/h (4 Bft) 100,00 %
28.04.2019 11:30 10,6 C 11,7 C 11,7 C 77 % 1015,8 hPa 0,0 l/m 0 h 0 h 274 W/m 12,9 km/h (3 Bft) 100,00 %
28.04.2019 11:32 10,6 C 11,7 C 11,1 C 77 % 1015,8 hPa 0,0 l/m 0 h 0 h 248 W/m 19,3 km/h (3 Bft) 100,00 %
28.04.2019 11:34 10,6 C 11,1 C 10,6 C 77 % 1015,8 hPa 0,0 l/m 0 h 0 h 223 W/m 22,5 km/h (4 Bft) 100,00 %
28.04.2019 11:36 10,6 C 10,6 C 10,0 C 77 % 1015,8 hPa 0,0 l/m 0 h 0 h 218 W/m 16,1 km/h (3 Bft) 100,00 %
28.04.2019 11:38 10,6 C 11,1 C 10,6 C 78 % 1015,8 hPa 0,0 l/m 0 h 0 h 240 W/m 12,9 km/h (3 Bft) 100,00 %
28.04.2019 11:40 10,6 C 11,7 C 10,6 C 78 % 1015,8 hPa 0,0 l/m 2 h 0 h 367 W/m 19,3 km/h (3 Bft) 97,87 %
28.04.2019 11:42 10,6 C 12,8 C 12,2 C 77 % 1015,8 hPa 0,0 l/m 2 h 0 h 538 W/m 22,5 km/h (4 Bft) 97,87 %
28.04.2019 11:44 10,6 C 13,9 C 12,8 C 77 % 1015,7 hPa 0,0 l/m 2 h 0 h 503 W/m 12,9 km/h (3 Bft) 100,00 %
28.04.2019 11:46 10,7 C 14,4 C 12,8 C 77 % 1015,7 hPa 0,0 l/m 2 h 0 h 456 W/m 16,1 km/h (3 Bft) 100,00 %
28.04.2019 11:48 10,7 C 14,4 C 12,8 C 77 % 1015,7 hPa 0,0 l/m 2 h 0 h 509 W/m 12,9 km/h (3 Bft) 98,11 %
28.04.2019 11:50 10,8 C 15,0 C 13,9 C 77 % 1015,8 hPa 0,0 l/m 2 h 0 h 547 W/m 16,1 km/h (3 Bft) 97,87 %
28.04.2019 11:52 10,9 C 15,0 C 14,4 C 76 % 1015,8 hPa 0,0 l/m 2 h 0 h 529 W/m 16,1 km/h (3 Bft) 97,87 %
28.04.2019 11:54 11,0 C 17,8 C 16,7 C 76 % 1015,8 hPa 0,0 l/m 2 h 0 h 529 W/m 12,9 km/h (3 Bft) 100,00 %
28.04.2019 11:56 11,2 C 16,7 C 16,1 C 76 % 1015,8 hPa 0,0 l/m 2 h 0 h 528 W/m 19,3 km/h (3 Bft) 100,00 %
28.04.2019 11:58 11,3 C 16,1 C 15,6 C 75 % 1015,7 hPa 0,0 l/m 2 h 0 h 533 W/m 16,1 km/h (3 Bft) 97,37 %
28.04.2019 12:00 11,4 C 15,6 C 15,0 C 74 % 1015,7 hPa 0,0 l/m 2 h 0 h 632 W/m 12,9 km/h (3 Bft) 97,83 %
28.04.2019 12:02 11,5 C 13,9 C 13,9 C 73 % 1015,7 hPa 0,0 l/m 2 h 0 h 518 W/m 16,1 km/h (3 Bft) 97,87 %
28.04.2019 12:04 11,6 C 12,2 C 12,2 C 73 % 1015,8 hPa 0,0 l/m 0 h 0 h 181 W/m 16,1 km/h (3 Bft) 100,00 %
28.04.2019 12:08 11,6 C 11,1 C 10,6 C 72 % 1015,8 hPa 0,0 l/m 0 h 0 h 111 W/m 16,1 km/h (3 Bft) 99,05 %
28.04.2019 12:10 11,6 C 10,6 C 10,6 C 72 % 1015,7 hPa 0,0 l/m 0 h 2 h 86 W/m 16,1 km/h (3 Bft) 97,83 %
28.04.2019 12:12 11,5 C 10,0 C 9,4 C 73 % 1015,8 hPa 0,0 l/m 0 h 2 h 73 W/m 16,1 km/h (3 Bft) 97,87 %
28.04.2019 12:14 11,4 C 10,0 C 9,4 C 74 % 1015,8 hPa 0,0 l/m 0 h 0 h 63 W/m 16,1 km/h (3 Bft) 97,87 %
28.04.2019 12:16 11,3 C 10,0 C 9,4 C 75 % 1015,9 hPa 0,0 l/m 0 h 0 h 71 W/m 12,9 km/h (3 Bft) 97,37 %
28.04.2019 12:18 11,2 C 9,4 C 9,4 C 75 % 1015,9 hPa 0,0 l/m 0 h 0 h 95 W/m 22,5 km/h (4 Bft) 97,87 %
28.04.2019 12:20 11,1 C 9,4 C 9,4 C 76 % 1015,8 hPa 0,0 l/m 0 h 0 h 113 W/m 22,5 km/h (4 Bft) 97,87 %
28.04.2019 12:22 10,9 C 9,4 C 8,9 C 76 % 1015,9 hPa 0,0 l/m 0 h 2 h 128 W/m 19,3 km/h (3 Bft) 95,74 %
28.04.2019 12:24 10,8 C 9,4 C 8,9 C 76 % 1016,1 hPa 0,0 l/m 0 h 0 h 148 W/m 16,1 km/h (3 Bft) 95,65 %
28.04.2019 12:26 10,7 C 9,4 C 8,9 C 76 % 1016,0 hPa 0,0 l/m 0 h 0 h 168 W/m 16,1 km/h (3 Bft) 95,74 %
28.04.2019 12:28 10,6 C 10,0 C 9,4 C 76 % 1016,1 hPa 0,0 l/m 0 h 0 h 196 W/m 19,3 km/h (3 Bft) 95,74 %
28.04.2019 12:30 10,5 C 10,0 C 9,4 C 76 % 1016,1 hPa 0,0 l/m 0 h 0 h 213 W/m 16,1 km/h (3 Bft) 91,49 %
28.04.2019 12:32 10,4 C 10,0 C 9,4 C 76 % 1016,0 hPa 0,0 l/m 0 h 0 h 228 W/m 16,1 km/h (3 Bft) 95,74 %
28.04.2019 12:34 10,3 C 10,0 C 9,4 C 77 % 1016,1 hPa 0,0 l/m 0 h 0 h 226 W/m 16,1 km/h (3 Bft) 95,74 %
28.04.2019 12:36 10,3 C 8,9 C 8,9 C 77 % 1016,1 hPa 0,0 l/m 0 h 2 h 213 W/m 19,3 km/h (3 Bft) 93,48 %
28.04.2019 12:38 10,2 C 8,3 C 8,3 C 77 % 1016,1 hPa 0,0 l/m 0 h 2 h 212 W/m 9,7 km/h (2 Bft) 95,74 %
28.04.2019 12:40 10,2 C 8,3 C 7,8 C 78 % 1016,1 hPa 0,0 l/m 0 h 2 h 226 W/m 12,9 km/h (3 Bft) 95,74 %
28.04.2019 12:42 10,2 C 8,3 C 8,3 C 79 % 1016,1 hPa 0,0 l/m 0 h 2 h 250 W/m 12,9 km/h (3 Bft) 95,74 %
28.04.2019 12:44 10,1 C 8,9 C 8,3 C 79 % 1016,1 hPa 0,0 l/m 0 h 2 h 278 W/m 12,9 km/h (3 Bft) 95,74 %
28.04.2019 12:46 10,1 C 8,9 C 8,3 C 80 % 1016,1 hPa 0,0 l/m 0 h 2 h 340 W/m 9,7 km/h (2 Bft) 93,62 %
28.04.2019 12:48 10,1 C 9,4 C 8,9 C 80 % 1016,0 hPa 0,0 l/m 0 h 2 h 370 W/m 9,7 km/h (2 Bft) 95,65 %
28.04.2019 12:50 10,1 C 10,0 C 8,9 C 79 % 1016,0 hPa 0,0 l/m 2 h 0 h 387 W/m 9,7 km/h (2 Bft) 91,49 %
28.04.2019 12:52 10,1 C 10,6 C 9,4 C 79 % 1015,9 hPa 0,0 l/m 2 h 0 h 403 W/m 9,7 km/h (2 Bft) 95,74 %
28.04.2019 12:54 10,1 C 11,1 C 10,0 C 79 % 1015,9 hPa 0,0 l/m 2 h 0 h 422 W/m 6,4 km/h (2 Bft) 98,21 %
28.04.2019 12:56 10,2 C 12,8 C 11,1 C 79 % 1016,1 hPa 0,0 l/m 2 h 0 h 447 W/m 6,4 km/h (2 Bft) 95,65 %
28.04.2019 12:58 10,2 C 13,9 C 12,2 C 80 % 1015,9 hPa 0,0 l/m 2 h 0 h 461 W/m 6,4 km/h (2 Bft) 95,74 %
28.04.2019 13:00 10,3 C 14,4 C 12,8 C 80 % 1016,0 hPa 0,0 l/m 2 h 0 h 542 W/m 9,7 km/h (2 Bft) 94,74 %
28.04.2019 13:02 10,4 C 15,6 C 13,9 C 80 % 1015,9 hPa 0,0 l/m 2 h 0 h 568 W/m 9,7 km/h (2 Bft) 95,74 %
28.04.2019 13:04 10,5 C 16,7 C 14,4 C 80 % 1015,9 hPa 0,0 l/m 2 h 0 h 573 W/m 6,4 km/h (2 Bft) 93,62 %
28.04.2019 13:06 10,6 C 18,3 C 16,7 C 80 % 1015,9 hPa 0,0 l/m 2 h 0 h 644 W/m 9,7 km/h (2 Bft) 93,10 %
28.04.2019 13:08 10,8 C 18,3 C 17,2 C 80 % 1015,9 hPa 0,0 l/m 2 h 0 h 635 W/m 6,4 km/h (2 Bft) 97,22 %
28.04.2019 13:10 10,9 C 17,8 C 16,7 C 80 % 1015,9 hPa 0,0 l/m 2 h 0 h 577 W/m 9,7 km/h (2 Bft) 95,65 %
28.04.2019 13:12 11,1 C 15,6 C 15,0 C 79 % 1015,9 hPa 0,0 l/m 2 h 0 h 436 W/m 12,9 km/h (3 Bft) 91,49 %
28.04.2019 13:14 11,2 C 17,8 C 17,2 C 79 % 1015,9 hPa 0,0 l/m 2 h 0 h 538 W/m 6,4 km/h (2 Bft) 95,74 %
28.04.2019 13:16 11,4 C 17,2 C 16,1 C 79 % 1015,9 hPa 0,0 l/m 2 h 0 h 499 W/m 9,7 km/h (2 Bft) 93,62 %
28.04.2019 13:18 11,6 C 17,2 C 16,1 C 79 % 1015,9 hPa 0,0 l/m 2 h 0 h 413 W/m 6,4 km/h (2 Bft) 97,87 %
28.04.2019 13:20 11,7 C 15,6 C 15,0 C 78 % 1015,8 hPa 0,0 l/m 0 h 0 h 382 W/m 12,9 km/h (3 Bft) 97,87 %
28.04.2019 13:22 11,8 C 13,9 C 13,9 C 77 % 1015,9 hPa 0,0 l/m 0 h 0 h 228 W/m 19,3 km/h (3 Bft) 97,83 %
28.04.2019 13:24 11,8 C 12,8 C 12,8 C 76 % 1015,8 hPa 0,0 l/m 0 h 0 h 180 W/m 16,1 km/h (3 Bft) 97,87 %
28.04.2019 13:26 11,8 C 11,7 C 11,7 C 76 % 1016,0 hPa 0,0 l/m 0 h 0 h 145 W/m 16,1 km/h (3 Bft) 97,87 %
28.04.2019 13:28 11,8 C 11,7 C 11,7 C 75 % 1016,0 hPa 0,0 l/m 0 h 0 h 131 W/m 9,7 km/h (2 Bft) 97,87 %
28.04.2019 13:30 11,8 C 11,7 C 11,7 C 75 % 1016,1 hPa 0,0 l/m 0 h 2 h 121 W/m 6,4 km/h (2 Bft) 95,74 %
28.04.2019 13:32 11,8 C 11,1 C 11,1 C 75 % 1016,0 hPa 0,0 l/m 0 h 2 h 116 W/m 9,7 km/h (2 Bft) 97,87 %
28.04.2019 13:34 11,8 C 10,6 C 10,0 C 76 % 1016,2 hPa 0,0 l/m 0 h 2 h 118 W/m 12,9 km/h (3 Bft) 97,96 %
28.04.2019 13:36 11,7 C 9,4 C 8,9 C 76 % 1016,1 hPa 0,0 l/m 0 h 2 h 127 W/m 12,9 km/h (3 Bft) 97,87 %
28.04.2019 13:38 11,7 C 9,4 C 8,9 C 76 % 1016,1 hPa 0,0 l/m 0 h 2 h 145 W/m 6,4 km/h (2 Bft) 95,74 %
28.04.2019 13:40 11,6 C 10,0 C 8,9 C 77 % 1016,1 hPa 0,0 l/m 0 h 0 h 165 W/m 12,9 km/h (3 Bft) 97,87 %
28.04.2019 13:42 11,6 C 10,0 C 8,9 C 77 % 1016,1 hPa 0,0 l/m 0 h 0 h 188 W/m 9,7 km/h (2 Bft) 95,74 %
28.04.2019 13:44 11,5 C 10,6 C 9,4 C 76 % 1016,0 hPa 0,0 l/m 0 h 0 h 212 W/m 9,7 km/h (2 Bft) 97,83 %
28.04.2019 13:46 11,5 C 10,6 C 9,4 C 76 % 1016,1 hPa 0,0 l/m 0 h 0 h 241 W/m 9,7 km/h (2 Bft) 98,00 %
28.04.2019 13:48 11,4 C 11,1 C 10,0 C 76 % 1016,0 hPa 0,0 l/m 0 h 0 h 286 W/m 9,7 km/h (2 Bft) 95,74 %
28.04.2019 13:50 11,4 C 12,2 C 11,1 C 76 % 1016,0 hPa 0,0 l/m 0 h 0 h 345 W/m 12,9 km/h (3 Bft) 100,00 %
28.04.2019 13:52 11,4 C 12,2 C 11,1 C 76 % 1016,1 hPa 0,0 l/m 0 h 0 h 335 W/m 16,1 km/h (3 Bft) 100,00 %
28.04.2019 13:54 11,3 C 12,2 C 11,1 C 76 % 1016,0 hPa 0,0 l/m 0 h 0 h 310 W/m 6,4 km/h (2 Bft) 97,14 %
28.04.2019 13:56 11,4 C 12,2 C 10,6 C 76 % 1016,1 hPa 0,0 l/m 0 h 0 h 288 W/m 12,9 km/h (3 Bft) 100,00 %
28.04.2019 13:58 11,4 C 11,7 C 11,1 C 77 % 1016,1 hPa 0,0 l/m 0 h 0 h 275 W/m 9,7 km/h (2 Bft) 100,00 %
28.04.2019 14:00 11,4 C 11,7 C 11,1 C 77 % 1016,0 hPa 0,0 l/m 0 h 0 h 266 W/m 16,1 km/h (3 Bft) 97,87 %
28.04.2019 14:02 11,4 C 12,2 C 11,1 C 77 % 1016,1 hPa 0,0 l/m 0 h 0 h 263 W/m 12,9 km/h (3 Bft) 100,00 %
28.04.2019 14:04 11,4 C 11,7 C 11,1 C 77 % 1016,1 hPa 0,0 l/m 0 h 0 h 267 W/m 12,9 km/h (3 Bft) 100,00 %
28.04.2019 14:06 11,4 C 12,2 C 11,7 C 76 % 1016,0 hPa 0,0 l/m 0 h 0 h 284 W/m 9,7 km/h (2 Bft) 100,00 %
28.04.2019 14:08 11,4 C 12,2 C 11,7 C 76 % 1016,0 hPa 0,0 l/m 0 h 0 h 332 W/m 16,1 km/h (3 Bft) 97,83 %
28.04.2019 14:10 11,4 C 13,9 C 13,3 C 76 % 1016,0 hPa 0,0 l/m 0 h 0 h 369 W/m 12,9 km/h (3 Bft) 100,00 %
28.04.2019 14:12 11,4 C 13,9 C 13,9 C 76 % 1016,0 hPa 0,0 l/m 2 h 0 h 421 W/m 9,7 km/h (2 Bft) 100,00 %
28.04.2019 14:14 11,5 C 15,0 C 14,4 C 75 % 1016,0 hPa 0,0 l/m 2 h 0 h 586 W/m 9,7 km/h (2 Bft) 100,00 %
28.04.2019 14:16 11,6 C 14,4 C 13,9 C 75 % 1015,9 hPa 0,0 l/m 2 h 0 h 445 W/m 12,9 km/h (3 Bft) 100,00 %
28.04.2019 14:18 11,6 C 13,9 C 13,9 C 74 % 1016,0 hPa 0,0 l/m 2 h 0 h 418 W/m 12,9 km/h (3 Bft) 100,00 %
28.04.2019 14:20 11,7 C 13,9 C 13,3 C 73 % 1016,0 hPa 0,0 l/m 2 h 0 h 420 W/m 16,1 km/h (3 Bft) 100,00 %
28.04.2019 14:22 11,7 C 13,3 C 12,8 C 73 % 1015,9 hPa 0,0 l/m 2 h 0 h 417 W/m 12,9 km/h (3 Bft) 97,83 %
28.04.2019 14:24 11,7 C 13,9 C 12,8 C 73 % 1015,9 hPa 0,0 l/m 2 h 0 h 412 W/m 6,4 km/h (2 Bft) 100,00 %
28.04.2019 14:26 11,8 C 14,4 C 13,3 C 73 % 1015,9 hPa 0,0 l/m 2 h 0 h 431 W/m 6,4 km/h (2 Bft) 100,00 %
28.04.2019 14:28 11,8 C 13,9 C 13,3 C 73 % 1015,9 hPa 0,0 l/m 2 h 0 h 432 W/m 16,1 km/h (3 Bft) 100,00 %
28.04.2019 14:30 11,9 C 13,9 C 13,3 C 72 % 1016,0 hPa 0,0 l/m 2 h 0 h 420 W/m 19,3 km/h (3 Bft) 98,21 %
28.04.2019 14:32 11,9 C 13,9 C 12,8 C 71 % 1016,0 hPa 0,0 l/m 2 h 0 h 418 W/m 12,9 km/h (3 Bft) 97,83 %
28.04.2019 14:34 12,0 C 13,9 C 13,3 C 71 % 1016,0 hPa 0,0 l/m 2 h 0 h 426 W/m 12,9 km/h (3 Bft) 100,00 %
28.04.2019 14:36 12,1 C 13,9 C 13,3 C 71 % 1016,0 hPa 0,0 l/m 2 h 0 h 404 W/m 12,9 km/h (3 Bft) 97,87 %
28.04.2019 14:38 12,1 C 13,9 C 13,3 C 70 % 1016,0 hPa 0,0 l/m 0 h 0 h 376 W/m 19,3 km/h (3 Bft) 100,00 %
28.04.2019 14:40 12,1 C 13,3 C 12,8 C 70 % 1016,0 hPa 0,0 l/m 0 h 0 h 350 W/m 16,1 km/h (3 Bft) 100,00 %
28.04.2019 14:42 12,1 C 13,3 C 12,8 C 70 % 1016,1 hPa 0,0 l/m 0 h 0 h 334 W/m 16,1 km/h (3 Bft) 100,00 %
28.04.2019 14:44 12,2 C 12,8 C 12,8 C 69 % 1016,0 hPa 0,0 l/m 0 h 0 h 327 W/m 16,1 km/h (3 Bft) 100,00 %
28.04.2019 14:46 12,2 C 12,8 C 12,8 C 69 % 1016,0 hPa 0,0 l/m 0 h 0 h 334 W/m 12,9 km/h (3 Bft) 100,00 %
28.04.2019 14:48 12,2 C 13,3 C 12,8 C 69 % 1016,0 hPa 0,0 l/m 0 h 0 h 336 W/m 9,7 km/h (2 Bft) 97,87 %
28.04.2019 14:50 12,2 C 12,8 C 12,8 C 69 % 1016,0 hPa 0,0 l/m 0 h 0 h 329 W/m 12,9 km/h (3 Bft) 94,29 %
28.04.2019 14:52 12,2 C 13,3 C 12,8 C 69 % 1016,1 hPa 0,0 l/m 0 h 0 h 325 W/m 6,4 km/h (2 Bft) 98,21 %
28.04.2019 14:54 12,2 C 13,3 C 12,8 C 69 % 1016,0 hPa 0,0 l/m 0 h 0 h 320 W/m 16,1 km/h (3 Bft) 95,92 %
28.04.2019 14:56 12,3 C 13,3 C 12,8 C 69 % 1016,1 hPa 0,0 l/m 0 h 0 h 317 W/m 12,9 km/h (3 Bft) 97,87 %
28.04.2019 14:58 12,3 C 12,8 C 12,8 C 69 % 1016,0 hPa 0,0 l/m 0 h 0 h 318 W/m 12,9 km/h (3 Bft) 97,87 %
28.04.2019 15:00 12,3 C 13,3 C 12,8 C 70 % 1016,1 hPa 0,0 l/m 0 h 0 h 329 W/m 9,7 km/h (2 Bft) 97,87 %
28.04.2019 15:02 12,3 C 13,3 C 12,8 C 70 % 1016,1 hPa 0,0 l/m 0 h 0 h 333 W/m 6,4 km/h (2 Bft) 97,87 %
28.04.2019 15:04 12,3 C 13,3 C 12,8 C 71 % 1016,3 hPa 0,0 l/m 0 h 0 h 336 W/m 12,9 km/h (3 Bft) 95,74 %
28.04.2019 15:06 12,4 C 13,9 C 12,8 C 71 % 1016,2 hPa 0,0 l/m 0 h 0 h 353 W/m 6,4 km/h (2 Bft) 97,83 %
28.04.2019 15:08 12,4 C 14,4 C 13,3 C 72 % 1016,2 hPa 0,0 l/m 0 h 0 h 361 W/m 12,9 km/h (3 Bft) 97,87 %
28.04.2019 15:10 12,5 C 14,4 C 13,3 C 72 % 1016,2 hPa 0,0 l/m 2 h 0 h 429 W/m 12,9 km/h (3 Bft) 97,14 %
28.04.2019 15:12 12,5 C 13,9 C 12,8 C 72 % 1016,2 hPa 0,0 l/m 2 h 0 h 395 W/m 9,7 km/h (2 Bft) 97,87 %
28.04.2019 15:14 12,6 C 13,9 C 12,8 C 72 % 1016,2 hPa 0,0 l/m 0 h 0 h 347 W/m 9,7 km/h (2 Bft) 98,21 %
28.04.2019 15:16 12,6 C 12,8 C 12,8 C 72 % 1016,3 hPa 0,0 l/m 0 h 0 h 275 W/m 12,9 km/h (3 Bft) 97,87 %
28.04.2019 15:18 12,6 C 12,2 C 12,2 C 72 % 1016,3 hPa 0,0 l/m 0 h 0 h 213 W/m 6,4 km/h (2 Bft) 97,83 %
28.04.2019 15:20 12,6 C 12,8 C 12,2 C 72 % 1016,3 hPa 0,0 l/m 0 h 0 h 163 W/m 9,7 km/h (2 Bft) 97,87 %
28.04.2019 15:22 12,6 C 12,8 C 12,2 C 73 % 1016,3 hPa 0,0 l/m 0 h 0 h 137 W/m 9,7 km/h (2 Bft) 97,87 %
28.04.2019 15:24 12,6 C 12,8 C 12,2 C 74 % 1016,3 hPa 0,0 l/m 0 h 0 h 114 W/m 6,4 km/h (2 Bft) 95,74 %
28.04.2019 15:26 12,6 C 12,2 C 11,7 C 73 % 1016,3 hPa 0,0 l/m 0 h 0 h 100 W/m 6,4 km/h (2 Bft) 98,00 %
28.04.2019 15:28 12,5 C 12,2 C 11,7 C 73 % 1016,3 hPa 0,0 l/m 0 h 0 h 92 W/m 6,4 km/h (2 Bft) 100,00 %
28.04.2019 15:30 12,4 C 12,2 C 11,7 C 73 % 1016,3 hPa 0,0 l/m 0 h 0 h 92 W/m 6,4 km/h (2 Bft) 100,00 %
28.04.2019 15:32 12,4 C 11,7 C 11,7 C 73 % 1016,3 hPa 0,0 l/m 0 h 0 h 96 W/m 6,4 km/h (2 Bft) 100,00 %
28.04.2019 15:34 12,4 C 11,7 C 11,7 C 73 % 1016,3 hPa 0,0 l/m 0 h 0 h 97 W/m 6,4 km/h (2 Bft) 97,83 %
28.04.2019 15:36 12,3 C 11,7 C 11,1 C 73 % 1016,4 hPa 0,0 l/m 0 h 0 h 96 W/m 9,7 km/h (2 Bft) 98,31 %
28.04.2019 15:38 12,3 C 11,7 C 11,1 C 73 % 1016,4 hPa 0,0 l/m 0 h 0 h 101 W/m 6,4 km/h (2 Bft) 100,00 %
28.04.2019 15:40 12,2 C 11,7 C 11,7 C 74 % 1016,4 hPa 0,0 l/m 0 h 0 h 119 W/m 6,4 km/h (2 Bft) 97,87 %
28.04.2019 15:42 12,2 C 12,2 C 11,7 C 74 % 1016,4 hPa 0,0 l/m 0 h 0 h 145 W/m 6,4 km/h (2 Bft) 97,87 %
28.04.2019 15:44 12,2 C 12,2 C 11,7 C 74 % 1016,4 hPa 0,0 l/m 0 h 0 h 167 W/m 3,2 km/h (1 Bft) 97,87 %
28.04.2019 15:46 12,2 C 12,2 C 11,7 C 75 % 1016,4 hPa 0,0 l/m 0 h 0 h 186 W/m 9,7 km/h (2 Bft) 98,18 %
28.04.2019 15:48 12,2 C 12,2 C 11,7 C 75 % 1016,5 hPa 0,0 l/m 0 h 0 h 199 W/m 9,7 km/h (2 Bft) 98,00 %
28.04.2019 15:50 12,2 C 12,8 C 12,2 C 75 % 1016,4 hPa 0,0 l/m 0 h 0 h 207 W/m 6,4 km/h (2 Bft) 97,87 %
28.04.2019 15:52 12,2 C 12,8 C 12,2 C 75 % 1016,4 hPa 0,0 l/m 0 h 0 h 212 W/m 12,9 km/h (3 Bft) 95,74 %
28.04.2019 15:54 12,2 C 12,8 C 12,2 C 75 % 1016,5 hPa 0,0 l/m 0 h 0 h 208 W/m 9,7 km/h (2 Bft) 95,65 %
28.04.2019 15:56 12,2 C 12,8 C 12,2 C 75 % 1016,6 hPa 0,0 l/m 0 h 0 h 206 W/m 9,7 km/h (2 Bft) 95,74 %
28.04.2019 15:58 12,2 C 12,8 C 12,2 C 75 % 1016,5 hPa 0,0 l/m 0 h 0 h 201 W/m 9,7 km/h (2 Bft) 97,14 %
28.04.2019 16:00 12,2 C 13,3 C 12,2 C 74 % 1016,5 hPa 0,0 l/m 0 h 0 h 223 W/m 6,4 km/h (2 Bft) 93,62 %
28.04.2019 16:02 12,2 C 13,3 C 12,2 C 74 % 1016,6 hPa 0,0 l/m 0 h 0 h 235 W/m 9,7 km/h (2 Bft) 94,64 %
28.04.2019 16:04 12,2 C 13,3 C 12,2 C 74 % 1016,6 hPa 0,0 l/m 2 h 0 h 330 W/m 16,1 km/h (3 Bft) 95,65 %
28.04.2019 16:06 12,3 C 13,9 C 12,2 C 75 % 1016,6 hPa 0,0 l/m 0 h 0 h 312 W/m 9,7 km/h (2 Bft) 95,74 %
28.04.2019 16:08 12,3 C 13,9 C 12,2 C 75 % 1016,6 hPa 0,0 l/m 0 h 0 h 302 W/m 9,7 km/h (2 Bft) 95,74 %
28.04.2019 16:10 12,4 C 13,9 C 12,2 C 76 % 1016,6 hPa 0,0 l/m 0 h 0 h 240 W/m 9,7 km/h (2 Bft) 95,74 %
28.04.2019 16:12 12,5 C 13,9 C 12,2 C 76 % 1016,6 hPa 0,0 l/m 0 h 0 h 230 W/m 3,2 km/h (1 Bft) 96,00 %
28.04.2019 16:14 12,6 C 13,3 C 12,2 C 76 % 1016,6 hPa 0,0 l/m 0 h 0 h 204 W/m 9,7 km/h (2 Bft) 97,87 %
28.04.2019 16:16 12,6 C 12,8 C 11,7 C 76 % 1016,7 hPa 0,0 l/m 0 h 2 h 131 W/m 3,2 km/h (1 Bft) 95,74 %
28.04.2019 16:18 12,7 C 12,8 C 11,7 C 75 % 1016,7 hPa 0,0 l/m 0 h 0 h 115 W/m 9,7 km/h (2 Bft) 94,29 %
28.04.2019 16:20 12,7 C 12,2 C 11,7 C 75 % 1016,6 hPa 0,0 l/m 0 h 0 h 100 W/m 3,2 km/h (1 Bft) 94,55 %
28.04.2019 16:22 12,7 C 11,7 C 11,1 C 74 % 1016,7 hPa 0,0 l/m 0 h 2 h 89 W/m 6,4 km/h (2 Bft) 93,62 %
28.04.2019 16:24 12,7 C 11,7 C 11,1 C 74 % 1016,7 hPa 0,0 l/m 0 h 2 h 84 W/m 3,2 km/h (1 Bft) 96,00 %
28.04.2019 16:26 12,7 C 11,1 C 10,6 C 75 % 1016,7 hPa 0,0 l/m 0 h 2 h 82 W/m 6,4 km/h (2 Bft) 91,49 %
28.04.2019 16:28 12,6 C 10,6 C 10,6 C 74 % 1016,7 hPa 0,0 l/m 0 h 2 h 81 W/m 6,4 km/h (2 Bft) 97,14 %
28.04.2019 16:30 12,6 C 10,6 C 10,0 C 74 % 1016,7 hPa 0,0 l/m 0 h 2 h 80 W/m 6,4 km/h (2 Bft) 92,73 %
28.04.2019 16:32 12,6 C 10,0 C 10,0 C 74 % 1016,7 hPa 0,0 l/m 0 h 2 h 79 W/m 6,4 km/h (2 Bft) 96,00 %
28.04.2019 16:34 12,4 C 10,0 C 9,4 C 74 % 1016,7 hPa 0,0 l/m 0 h 2 h 78 W/m 6,4 km/h (2 Bft) 95,74 %
28.04.2019 16:36 12,4 C 10,0 C 9,4 C 74 % 1016,7 hPa 0,0 l/m 0 h 2 h 81 W/m 3,2 km/h (1 Bft) 97,87 %
28.04.2019 16:38 12,3 C 9,4 C 9,4 C 74 % 1016,7 hPa 0,0 l/m 0 h 2 h 84 W/m 6,4 km/h (2 Bft) 95,65 %
28.04.2019 16:40 12,2 C 10,0 C 9,4 C 74 % 1016,7 hPa 0,0 l/m 0 h 0 h 86 W/m 6,4 km/h (2 Bft) 95,74 %
28.04.2019 16:42 12,1 C 10,0 C 10,0 C 75 % 1016,7 hPa 0,0 l/m 0 h 0 h 94 W/m 6,4 km/h (2 Bft) 95,74 %
28.04.2019 16:44 12,1 C 10,6 C 10,0 C 74 % 1016,7 hPa 0,0 l/m 0 h 0 h 103 W/m 9,7 km/h (2 Bft) 95,74 %
28.04.2019 16:46 12,0 C 10,6 C 10,6 C 74 % 1016,8 hPa 0,0 l/m 0 h 0 h 119 W/m 6,4 km/h (2 Bft) 97,87 %
28.04.2019 16:48 11,9 C 11,1 C 10,6 C 76 % 1016,7 hPa 0,0 l/m 0 h 0 h 145 W/m 6,4 km/h (2 Bft) 97,87 %
28.04.2019 16:50 11,9 C 11,7 C 11,1 C 76 % 1016,8 hPa 0,0 l/m 0 h 0 h 175 W/m 6,4 km/h (2 Bft) 97,83 %
28.04.2019 16:52 11,9 C 12,2 C 11,7 C 78 % 1016,8 hPa 0,0 l/m 0 h 0 h 198 W/m 3,2 km/h (1 Bft) 95,74 %
28.04.2019 16:54 11,9 C 12,2 C 11,7 C 79 % 1016,7 hPa 0,0 l/m 0 h 0 h 211 W/m 6,4 km/h (2 Bft) 97,87 %
28.04.2019 16:56 11,9 C 12,2 C 11,7 C 79 % 1016,8 hPa 0,0 l/m 0 h 0 h 213 W/m 6,4 km/h (2 Bft) 95,74 %
28.04.2019 16:58 11,9 C 12,2 C 11,7 C 78 % 1016,8 hPa 0,0 l/m 0 h 0 h 212 W/m 6,4 km/h (2 Bft) 100,00 %
28.04.2019 17:00 11,9 C 12,2 C 11,7 C 77 % 1016,8 hPa 0,0 l/m 0 h 0 h 216 W/m 6,4 km/h (2 Bft) 100,00 %
28.04.2019 17:02 11,9 C 12,8 C 11,7 C 76 % 1016,8 hPa 0,0 l/m 0 h 0 h 228 W/m 6,4 km/h (2 Bft) 97,14 %
28.04.2019 17:04 11,9 C 12,8 C 12,2 C 77 % 1016,9 hPa 0,0 l/m 0 h 0 h 244 W/m 3,2 km/h (1 Bft) 100,00 %
28.04.2019 17:06 11,9 C 13,3 C 12,2 C 78 % 1016,8 hPa 0,0 l/m 0 h 0 h 255 W/m 6,4 km/h (2 Bft) 100,00 %
28.04.2019 17:08 11,9 C 13,3 C 12,2 C 79 % 1016,8 hPa 0,0 l/m 0 h 0 h 265 W/m 6,4 km/h (2 Bft) 100,00 %
28.04.2019 17:10 12,0 C 13,9 C 12,8 C 79 % 1016,8 hPa 0,0 l/m 2 h 0 h 298 W/m 6,4 km/h (2 Bft) 100,00 %
28.04.2019 17:12 12,1 C 13,9 C 12,8 C 79 % 1016,8 hPa 0,0 l/m 2 h 0 h 297 W/m 6,4 km/h (2 Bft) 100,00 %
28.04.2019 17:14 12,2 C 13,9 C 12,8 C 79 % 1016,8 hPa 0,0 l/m 2 h 0 h 292 W/m 6,4 km/h (2 Bft) 100,00 %
28.04.2019 17:16 12,2 C 13,9 C 12,8 C 79 % 1016,8 hPa 0,0 l/m 2 h 0 h 357 W/m 3,2 km/h (1 Bft) 100,00 %
28.04.2019 17:18 12,2 C 13,9 C 12,8 C 78 % 1016,9 hPa 0,0 l/m 2 h 0 h 433 W/m 6,4 km/h (2 Bft) 100,00 %
28.04.2019 17:20 12,3 C 13,9 C 12,8 C 78 % 1016,8 hPa 0,0 l/m 2 h 0 h 698 W/m 6,4 km/h (2 Bft) 100,00 %
28.04.2019 17:22 12,4 C 13,9 C 12,8 C 77 % 1016,7 hPa 0,0 l/m 2 h 0 h 600 W/m 3,2 km/h (1 Bft) 97,87 %
28.04.2019 17:24 12,5 C 13,3 C 12,8 C 76 % 1016,8 hPa 0,0 l/m 2 h 0 h 584 W/m 6,4 km/h (2 Bft) 96,00 %
28.04.2019 17:26 12,6 C 13,3 C 12,8 C 75 % 1016,8 hPa 0,0 l/m 2 h 0 h 460 W/m 6,4 km/h (2 Bft) 97,87 %
28.04.2019 17:28 12,7 C 13,3 C 12,8 C 75 % 1016,8 hPa 0,0 l/m 2 h 0 h 296 W/m 9,7 km/h (2 Bft) 94,29 %
28.04.2019 17:30 12,7 C 13,3 C 12,8 C 75 % 1016,9 hPa 0,0 l/m 0 h 0 h 209 W/m 6,4 km/h (2 Bft) 97,87 %
28.04.2019 17:32 12,8 C 12,8 C 12,8 C 75 % 1016,9 hPa 0,0 l/m 0 h 0 h 179 W/m 6,4 km/h (2 Bft) 97,83 %
28.04.2019 17:34 12,9 C 12,8 C 12,2 C 75 % 1016,8 hPa 0,0 l/m 0 h 0 h 149 W/m 6,4 km/h (2 Bft) 95,74 %
28.04.2019 17:36 12,9 C 12,8 C 12,2 C 76 % 1016,9 hPa 0,0 l/m 0 h 0 h 134 W/m 6,4 km/h (2 Bft) 98,21 %
28.04.2019 17:38 12,9 C 12,2 C 11,7 C 75 % 1016,8 hPa 0,0 l/m 0 h 0 h 121 W/m 6,4 km/h (2 Bft) 97,96 %
28.04.2019 17:40 12,9 C 11,7 C 11,7 C 73 % 1016,9 hPa 0,0 l/m 0 h 0 h 107 W/m 6,4 km/h (2 Bft) 95,74 %
28.04.2019 17:42 12,8 C 11,7 C 11,1 C 73 % 1016,9 hPa 0,0 l/m 0 h 0 h 93 W/m 6,4 km/h (2 Bft) 97,87 %
28.04.2019 17:44 12,8 C 11,7 C 11,1 C 72 % 1016,9 hPa 0,0 l/m 0 h 0 h 82 W/m 3,2 km/h (1 Bft) 97,87 %
28.04.2019 17:46 12,8 C 11,7 C 11,1 C 73 % 1016,9 hPa 0,0 l/m 0 h 2 h 77 W/m 6,4 km/h (2 Bft) 97,87 %
28.04.2019 17:48 12,8 C 11,7 C 11,1 C 73 % 1016,9 hPa 0,0 l/m 0 h 0 h 77 W/m 12,9 km/h (3 Bft) 97,87 %
28.04.2019 17:50 12,8 C 11,7 C 11,1 C 73 % 1016,9 hPa 0,0 l/m 0 h 0 h 78 W/m 6,4 km/h (2 Bft) 94,29 %
28.04.2019 17:52 12,7 C 11,7 C 11,1 C 74 % 1016,9 hPa 0,0 l/m 0 h 0 h 81 W/m 9,7 km/h (2 Bft) 97,87 %
28.04.2019 17:54 12,7 C 11,1 C 11,1 C 73 % 1016,9 hPa 0,0 l/m 0 h 0 h 77 W/m 12,9 km/h (3 Bft) 98,18 %
28.04.2019 17:56 12,6 C 11,1 C 10,6 C 72 % 1016,9 hPa 0,0 l/m 0 h 0 h 65 W/m 6,4 km/h (2 Bft) 96,00 %
28.04.2019 17:58 12,6 C 11,1 C 10,6 C 72 % 1016,9 hPa 0,0 l/m 0 h 0 h 56 W/m 6,4 km/h (2 Bft) 97,87 %
28.04.2019 18:00 12,5 C 11,1 C 10,6 C 72 % 1016,9 hPa 0,0 l/m 0 h 0 h 53 W/m 6,4 km/h (2 Bft) 97,87 %
28.04.2019 18:02 12,4 C 11,1 C 10,6 C 72 % 1017,0 hPa 0,0 l/m 0 h 0 h 54 W/m 6,4 km/h (2 Bft) 100,00 %
28.04.2019 18:04 12,4 C 11,1 C 10,6 C 73 % 1017,0 hPa 0,0 l/m 0 h 0 h 56 W/m 3,2 km/h (1 Bft) 100,00 %
28.04.2019 18:08 12,4 C 11,1 C 10,0 C 74 % 1017,0 hPa 0,0 l/m 0 h 0 h 65 W/m 3,2 km/h (1 Bft) 100,00 %
28.04.2019 18:10 12,3 C 11,1 C 10,0 C 74 % 1017,0 hPa 0,0 l/m 0 h 0 h 72 W/m 3,2 km/h (1 Bft) 100,00 %
28.04.2019 18:12 12,3 C 11,1 C 10,0 C 73 % 1017,1 hPa 0,0 l/m 0 h 0 h 72 W/m 3,2 km/h (1 Bft) 100,00 %
28.04.2019 18:14 12,2 C 11,1 C 10,0 C 73 % 1017,0 hPa 0,0 l/m 0 h 0 h 70 W/m 3,2 km/h (1 Bft) 100,00 %
28.04.2019 18:16 12,2 C 11,1 C 10,0 C 74 % 1017,1 hPa 0,0 l/m 0 h 0 h 73 W/m 6,4 km/h (2 Bft) 100,00 %
28.04.2019 18:18 12,1 C 11,1 C 10,0 C 74 % 1017,1 hPa 0,0 l/m 0 h 0 h 74 W/m 3,2 km/h (1 Bft) 100,00 %
28.04.2019 18:20 12,1 C 10,6 C 10,0 C 74 % 1017,1 hPa 0,0 l/m 0 h 0 h 70 W/m 3,2 km/h (1 Bft) 100,00 %
28.04.2019 18:22 12,1 C 10,6 C 10,0 C 75 % 1017,1 hPa 0,0 l/m 0 h 0 h 68 W/m 3,2 km/h (1 Bft) 100,00 %
28.04.2019 18:24 12,1 C 10,6 C 10,0 C 75 % 1017,1 hPa 0,0 l/m 0 h 0 h 64 W/m 6,4 km/h (2 Bft) 100,00 %
28.04.2019 18:26 12,0 C 10,6 C 10,0 C 76 % 1017,0 hPa 0,0 l/m 0 h 0 h 56 W/m 3,2 km/h (1 Bft) 100,00 %
28.04.2019 18:28 12,0 C 10,6 C 10,0 C 76 % 1017,1 hPa 0,0 l/m 0 h 0 h 49 W/m 3,2 km/h (1 Bft) 100,00 %
28.04.2019 18:30 11,9 C 10,6 C 10,0 C 76 % 1017,0 hPa 0,0 l/m 0 h 0 h 54 W/m 6,4 km/h (2 Bft) 98,18 %
28.04.2019 18:32 11,9 C 10,6 C 10,0 C 76 % 1017,0 hPa 0,0 l/m 0 h 0 h 56 W/m 6,4 km/h (2 Bft) 100,00 %
28.04.2019 18:34 11,9 C 10,6 C 9,4 C 77 % 1017,0 hPa 0,0 l/m 0 h 0 h 49 W/m 3,2 km/h (1 Bft) 100,00 %
28.04.2019 18:36 11,8 C 10,6 C 9,4 C 76 % 1017,1 hPa 0,0 l/m 0 h 0 h 47 W/m 3,2 km/h (1 Bft) 100,00 %
28.04.2019 18:38 11,8 C 10,6 C 9,4 C 76 % 1017,1 hPa 0,0 l/m 0 h 0 h 50 W/m 3,2 km/h (1 Bft) 97,87 %
28.04.2019 18:40 11,7 C 10,6 C 9,4 C 76 % 1017,1 hPa 0,0 l/m 0 h 0 h 137 W/m 3,2 km/h (1 Bft) 100,00 %
28.04.2019 18:42 11,7 C 10,6 C 9,4 C 75 % 1017,1 hPa 0,0 l/m 2 h 0 h 190 W/m 3,2 km/h (1 Bft) 100,00 %
28.04.2019 18:44 11,7 C 10,6 C 9,4 C 75 % 1017,1 hPa 0,0 l/m 0 h 0 h 94 W/m 0,0 km/h (0 Bft) 100,00 %
28.04.2019 18:46 11,7 C 11,1 C 9,4 C 75 % 1017,1 hPa 0,0 l/m 0 h 0 h 52 W/m 0,0 km/h (0 Bft) 97,87 %
28.04.2019 18:48 11,6 C 10,6 C 9,4 C 75 % 1017,1 hPa 0,0 l/m 0 h 0 h 48 W/m 0,0 km/h (0 Bft) 97,83 %
28.04.2019 18:50 11,6 C 10,6 C 9,4 C 76 % 1017,1 hPa 0,0 l/m 0 h 0 h 47 W/m 0,0 km/h (0 Bft) 100,00 %
28.04.2019 18:52 11,6 C 10,6 C 9,4 C 76 % 1017,2 hPa 0,0 l/m 0 h 0 h 47 W/m 0,0 km/h (0 Bft) 100,00 %
28.04.2019 18:54 11,6 C 10,6 C 9,4 C 76 % 1017,2 hPa 0,0 l/m 0 h 0 h 46 W/m 0,0 km/h (0 Bft) 97,87 %
28.04.2019 18:56 11,6 C 10,6 C 9,4 C 76 % 1017,2 hPa 0,0 l/m 0 h 0 h 46 W/m 0,0 km/h (0 Bft) 95,74 %
28.04.2019 18:58 11,6 C 10,6 C 8,9 C 76 % 1017,3 hPa 0,0 l/m 0 h 0 h 46 W/m 0,0 km/h (0 Bft) 93,62 %
28.04.2019 19:00 11,5 C 10,0 C 8,9 C 77 % 1017,3 hPa 0,0 l/m 0 h 0 h 47 W/m 0,0 km/h (0 Bft) 97,87 %
28.04.2019 19:02 11,5 C 10,6 C 8,9 C 77 % 1017,3 hPa 0,0 l/m 0 h 0 h 50 W/m 3,2 km/h (1 Bft) 93,48 %
28.04.2019 19:04 11,5 C 10,6 C 8,9 C 78 % 1017,3 hPa 0,0 l/m 0 h 0 h 45 W/m 0,0 km/h (0 Bft) 95,74 %
28.04.2019 19:06 11,5 C 10,6 C 8,9 C 78 % 1017,3 hPa 0,0 l/m 0 h 0 h 53 W/m 0,0 km/h (0 Bft) 95,74 %
28.04.2019 19:08 11,4 C 10,6 C 8,9 C 78 % 1017,3 hPa 0,0 l/m 0 h 0 h 52 W/m 0,0 km/h (0 Bft) 95,74 %
28.04.2019 19:10 11,4 C 10,6 C 9,4 C 78 % 1017,3 hPa 0,0 l/m 0 h 0 h 49 W/m 0,0 km/h (0 Bft) 95,74 %
28.04.2019 19:12 11,4 C 11,1 C 9,4 C 78 % 1017,4 hPa 0,0 l/m 0 h 0 h 55 W/m 0,0 km/h (0 Bft) 93,48 %
28.04.2019 19:14 11,4 C 11,1 C 9,4 C 78 % 1017,4 hPa 0,0 l/m 0 h 0 h 60 W/m 3,2 km/h (1 Bft) 97,22 %
28.04.2019 19:16 11,4 C 11,1 C 9,4 C 78 % 1017,4 hPa 0,0 l/m 0 h 0 h 62 W/m 3,2 km/h (1 Bft) 94,55 %
28.04.2019 19:18 11,4 C 11,1 C 9,4 C 77 % 1017,5 hPa 0,0 l/m 0 h 0 h 63 W/m 0,0 km/h (0 Bft) 95,74 %
28.04.2019 19:20 11,4 C 11,1 C 9,4 C 77 % 1017,5 hPa 0,0 l/m 0 h 0 h 65 W/m 0,0 km/h (0 Bft) 93,62 %
28.04.2019 19:22 11,4 C 11,1 C 9,4 C 77 % 1017,5 hPa 0,0 l/m 0 h 0 h 65 W/m 3,2 km/h (1 Bft) 95,74 %
28.04.2019 19:24 11,3 C 11,7 C 9,4 C 76 % 1017,5 hPa 0,0 l/m 0 h 0 h 67 W/m 6,4 km/h (2 Bft) 95,92 %
28.04.2019 19:26 11,3 C 11,7 C 10,0 C 75 % 1017,5 hPa 0,0 l/m 0 h 0 h 65 W/m 6,4 km/h (2 Bft) 95,74 %
28.04.2019 19:28 11,3 C 11,7 C 10,0 C 75 % 1017,5 hPa 0,0 l/m 0 h 0 h 63 W/m 3,2 km/h (1 Bft) 95,74 %
28.04.2019 19:30 11,3 C 11,7 C 10,0 C 75 % 1017,5 hPa 0,0 l/m 0 h 0 h 63 W/m 3,2 km/h (1 Bft) 95,74 %
28.04.2019 19:32 11,3 C 11,7 C 10,0 C 74 % 1017,5 hPa 0,0 l/m 0 h 0 h 62 W/m 3,2 km/h (1 Bft) 95,74 %
28.04.2019 19:34 11,3 C 11,7 C 9,4 C 74 % 1017,5 hPa 0,0 l/m 0 h 0 h 61 W/m 3,2 km/h (1 Bft) 97,14 %
28.04.2019 19:36 11,3 C 11,1 C 9,4 C 73 % 1017,5 hPa 0,0 l/m 0 h 0 h 58 W/m 3,2 km/h (1 Bft) 96,55 %
28.04.2019 19:38 11,2 C 11,1 C 9,4 C 73 % 1017,5 hPa 0,0 l/m 0 h 0 h 55 W/m 3,2 km/h (1 Bft) 97,22 %
28.04.2019 19:40 11,3 C 11,1 C 9,4 C 73 % 1017,5 hPa 0,0 l/m 0 h 0 h 53 W/m 3,2 km/h (1 Bft) 97,83 %
28.04.2019 19:42 11,3 C 11,1 C 9,4 C 73 % 1017,5 hPa 0,0 l/m 0 h 0 h 53 W/m 0,0 km/h (0 Bft) 97,87 %
28.04.2019 19:44 11,3 C 11,1 C 10,0 C 72 % 1017,6 hPa 0,0 l/m 0 h 0 h 54 W/m 9,7 km/h (2 Bft) 97,87 %
28.04.2019 19:46 11,3 C 11,1 C 10,0 C 72 % 1017,5 hPa 0,0 l/m 0 h 0 h 55 W/m 6,4 km/h (2 Bft) 96,36 %
28.04.2019 19:48 11,3 C 11,1 C 10,0 C 72 % 1017,5 hPa 0,0 l/m 0 h 0 h 54 W/m 6,4 km/h (2 Bft) 97,87 %
28.04.2019 19:50 11,3 C 11,1 C 10,0 C 73 % 1017,6 hPa 0,0 l/m 0 h 0 h 50 W/m 12,9 km/h (3 Bft) 96,00 %
28.04.2019 19:52 11,3 C 11,1 C 10,0 C 72 % 1017,5 hPa 0,0 l/m 0 h 0 h 46 W/m 3,2 km/h (1 Bft) 97,87 %
28.04.2019 19:54 11,3 C 11,1 C 10,6 C 72 % 1017,6 hPa 0,0 l/m 0 h 0 h 45 W/m 6,4 km/h (2 Bft) 100,00 %
28.04.2019 19:56 11,4 C 11,1 C 10,6 C 72 % 1017,6 hPa 0,0 l/m 0 h 0 h 42 W/m 9,7 km/h (2 Bft) 100,00 %
28.04.2019 19:58 11,4 C 11,1 C 10,0 C 73 % 1017,7 hPa 0,0 l/m 0 h 0 h 41 W/m 6,4 km/h (2 Bft) 100,00 %
28.04.2019 20:00 11,4 C 11,1 C 10,6 C 72 % 1017,7 hPa 0,0 l/m 0 h 0 h 40 W/m 9,7 km/h (2 Bft) 100,00 %
28.04.2019 20:02 11,4 C 11,1 C 10,6 C 72 % 1017,6 hPa 0,0 l/m 0 h 0 h 39 W/m 9,7 km/h (2 Bft) 96,36 %
28.04.2019 20:04 11,4 C 11,1 C 10,6 C 72 % 1017,6 hPa 0,0 l/m 0 h 0 h 37 W/m 6,4 km/h (2 Bft) 98,00 %
28.04.2019 20:06 11,4 C 11,1 C 10,0 C 72 % 1017,7 hPa 0,0 l/m 0 h 0 h 34 W/m 6,4 km/h (2 Bft) 95,74 %
28.04.2019 20:08 11,5 C 11,1 C 10,0 C 72 % 1017,7 hPa 0,0 l/m 0 h 0 h 32 W/m 6,4 km/h (2 Bft) 97,87 %
28.04.2019 20:10 11,5 C 11,1 C 10,0 C 72 % 1017,7 hPa 0,0 l/m 0 h 0 h 30 W/m 6,4 km/h (2 Bft) 97,14 %
28.04.2019 20:12 11,5 C 11,1 C 10,0 C 72 % 1017,7 hPa 0,0 l/m 0 h 0 h 28 W/m 3,2 km/h (1 Bft) 97,87 %
28.04.2019 20:14 11,5 C 10,6 C 10,0 C 72 % 1017,7 hPa 0,0 l/m 0 h 0 h 27 W/m 6,4 km/h (2 Bft) 97,83 %
28.04.2019 20:16 11,5 C 10,6 C 10,0 C 72 % 1017,7 hPa 0,0 l/m 0 h 0 h 25 W/m 3,2 km/h (1 Bft) 92,86 %
28.04.2019 20:18 11,5 C 10,6 C 10,0 C 72 % 1017,8 hPa 0,0 l/m 0 h 0 h 23 W/m 6,4 km/h (2 Bft) 95,74 %
28.04.2019 20:20 11,5 C 10,6 C 9,4 C 72 % 1017,8 hPa 0,0 l/m 0 h 0 h 21 W/m 6,4 km/h (2 Bft) 95,92 %
28.04.2019 20:22 11,5 C 10,6 C 9,4 C 73 % 1017,8 hPa 0,0 l/m 0 h 0 h 19 W/m 6,4 km/h (2 Bft) 97,87 %
28.04.2019 20:24 11,5 C 10,6 C 9,4 C 73 % 1017,9 hPa 0,0 l/m 0 h 0 h 18 W/m 6,4 km/h (2 Bft) 97,87 %
28.04.2019 20:26 11,5 C 10,6 C 9,4 C 73 % 1017,9 hPa 0,0 l/m 0 h 0 h 16 W/m 6,4 km/h (2 Bft) 97,87 %
28.04.2019 20:28 11,5 C 10,0 C 9,4 C 73 % 1017,9 hPa 0,0 l/m 0 h 0 h 15 W/m 6,4 km/h (2 Bft) 97,87 %
28.04.2019 20:30 11,4 C 10,0 C 9,4 C 74 % 1018,0 hPa 0,0 l/m 0 h 0 h 13 W/m 6,4 km/h (2 Bft) 97,14 %
28.04.2019 20:32 11,4 C 10,0 C 9,4 C 74 % 1018,0 hPa 0,0 l/m 0 h 0 h 12 W/m 6,4 km/h (2 Bft) 98,21 %
28.04.2019 20:34 11,4 C 10,0 C 9,4 C 74 % 1018,0 hPa 0,0 l/m 0 h 0 h 11 W/m 6,4 km/h (2 Bft) 95,92 %
28.04.2019 20:36 11,4 C 10,0 C 9,4 C 74 % 1018,1 hPa 0,0 l/m 0 h 0 h 11 W/m 6,4 km/h (2 Bft) 97,87 %
28.04.2019 20:38 11,4 C 10,0 C 9,4 C 74 % 1018,2 hPa 0,0 l/m 0 h 0 h 9 W/m 3,2 km/h (1 Bft) 96,00 %
28.04.2019 20:40 11,3 C 10,0 C 8,9 C 74 % 1018,2 hPa 0,0 l/m 0 h 0 h 9 W/m 3,2 km/h (1 Bft) 97,14 %
28.04.2019 20:42 11,3 C 10,0 C 8,9 C 75 % 1018,2 hPa 0,0 l/m 0 h 0 h 7 W/m 6,4 km/h (2 Bft) 97,87 %
28.04.2019 20:44 11,3 C 10,0 C 8,9 C 75 % 1018,3 hPa 0,0 l/m 0 h 0 h 7 W/m 6,4 km/h (2 Bft) 98,15 %
28.04.2019 20:46 11,3 C 10,0 C 8,9 C 75 % 1018,3 hPa 0,0 l/m 0 h 0 h 5 W/m 3,2 km/h (1 Bft) 95,65 %
28.04.2019 20:48 11,2 C 10,0 C 8,9 C 75 % 1018,5 hPa 0,0 l/m 0 h 0 h 5 W/m 3,2 km/h (1 Bft) 95,74 %
28.04.2019 20:50 11,2 C 9,4 C 8,9 C 75 % 1018,6 hPa 0,0 l/m 0 h 0 h 4 W/m 3,2 km/h (1 Bft) 97,87 %
28.04.2019 20:52 11,2 C 9,4 C 8,9 C 75 % 1018,5 hPa 0,0 l/m 0 h 0 h 0 W/m 6,4 km/h (2 Bft) 95,74 %
28.04.2019 20:54 11,2 C 9,4 C 8,9 C 75 % 1018,5 hPa 0,0 l/m 0 h 0 h 0 W/m 6,4 km/h (2 Bft) 96,00 %
28.04.2019 20:56 11,1 C 9,4 C 8,3 C 75 % 1018,5 hPa 0,0 l/m 0 h 0 h 0 W/m 3,2 km/h (1 Bft) 100,00 %
28.04.2019 20:58 11,1 C 9,4 C 8,3 C 75 % 1018,6 hPa 0,0 l/m 0 h 0 h 0 W/m 6,4 km/h (2 Bft) 97,87 %
28.04.2019 21:00 11,0 C 9,4 C 8,3 C 75 % 1018,6 hPa 0,0 l/m 0 h 0 h 0 W/m 6,4 km/h (2 Bft) 94,34 %
28.04.2019 21:02 11,0 C 9,4 C 8,3 C 76 % 1018,6 hPa 0,0 l/m 0 h 0 h 0 W/m 6,4 km/h (2 Bft) 96,00 %
28.04.2019 21:04 10,9 C 9,4 C 8,3 C 76 % 1018,8 hPa 0,0 l/m 0 h 0 h 0 W/m 6,4 km/h (2 Bft) 97,87 %
28.04.2019 21:06 10,9 C 9,4 C 8,3 C 76 % 1018,8 hPa 0,0 l/m 0 h 0 h 0 W/m 3,2 km/h (1 Bft) 97,87 %
28.04.2019 21:08 10,9 C 9,4 C 8,3 C 76 % 1018,8 hPa 0,0 l/m 0 h 0 h 0 W/m 3,2 km/h (1 Bft) 97,83 %
28.04.2019 21:10 10,8 C 9,4 C 8,3 C 76 % 1018,8 hPa 0,0 l/m 0 h 0 h 0 W/m 3,2 km/h (1 Bft) 97,87 %
28.04.2019 21:12 10,8 C 8,9 C 7,8 C 76 % 1018,8 hPa 0,0 l/m 0 h 0 h 0 W/m 3,2 km/h (1 Bft) 97,37 %
28.04.2019 21:14 10,7 C 8,9 C 7,8 C 76 % 1018,8 hPa 0,0 l/m 0 h 0 h 0 W/m 3,2 km/h (1 Bft) 95,65 %
28.04.2019 21:16 10,7 C 8,9 C 7,8 C 76 % 1018,8 hPa 0,0 l/m 0 h 0 h 0 W/m 3,2 km/h (1 Bft) 97,87 %
28.04.2019 21:18 10,7 C 8,9 C 7,8 C 76 % 1018,9 hPa 0,0 l/m 0 h 0 h 0 W/m 0,0 km/h (0 Bft) 97,87 %
28.04.2019 21:20 10,6 C 8,3 C 7,2 C 76 % 1018,9 hPa 0,0 l/m 0 h 0 h 0 W/m 0,0 km/h (0 Bft) 97,87 %
28.04.2019 21:22 10,6 C 8,3 C 7,2 C 76 % 1018,9 hPa 0,0 l/m 0 h 0 h 0 W/m 0,0 km/h (0 Bft) 97,87 %
28.04.2019 21:24 10,5 C 7,8 C 7,2 C 77 % 1019,0 hPa 0,0 l/m 0 h 0 h 0 W/m 0,0 km/h (0 Bft) 97,83 %
28.04.2019 21:26 10,4 C 7,8 C 6,7 C 77 % 1019,0 hPa 0,0 l/m 0 h 0 h 0 W/m 0,0 km/h (0 Bft) 97,87 %
28.04.2019 21:28 10,4 C 7,8 C 6,7 C 77 % 1019,0 hPa 0,0 l/m 0 h 0 h 0 W/m 0,0 km/h (0 Bft) 97,87 %
28.04.2019 21:30 10,3 C 7,2 C 6,7 C 77 % 1019,1 hPa 0,0 l/m 0 h 0 h 0 W/m 0,0 km/h (0 Bft) 97,87 %
28.04.2019 21:32 10,2 C 7,8 C 6,7 C 78 % 1019,2 hPa 0,0 l/m 0 h 0 h 0 W/m 0,0 km/h (0 Bft) 100,00 %
28.04.2019 21:34 10,2 C 7,8 C 6,7 C 78 % 1019,3 hPa 0,0 l/m 0 h 0 h 0 W/m 3,2 km/h (1 Bft) 100,00 %
28.04.2019 21:36 10,1 C 7,2 C 6,1 C 79 % 1019,2 hPa 0,0 l/m 0 h 0 h 0 W/m 0,0 km/h (0 Bft) 100,00 %
28.04.2019 21:38 10,1 C 7,2 C 6,1 C 79 % 1019,2 hPa 0,0 l/m 0 h 0 h 0 W/m 0,0 km/h (0 Bft) 100,00 %
28.04.2019 21:40 9,9 C 7,2 C 6,1 C 79 % 1019,3 hPa 0,0 l/m 0 h 0 h 0 W/m 0,0 km/h (0 Bft) 100,00 %
28.04.2019 21:42 9,9 C 7,2 C 6,1 C 79 % 1019,3 hPa 0,0 l/m 0 h 0 h 0 W/m 0,0 km/h (0 Bft) 100,00 %
28.04.2019 21:44 9,8 C 7,2 C 6,1 C 79 % 1019,3 hPa 0,0 l/m 0 h 0 h 0 W/m 0,0 km/h (0 Bft) 100,00 %
28.04.2019 21:46 9,7 C 7,2 C 6,1 C 79 % 1019,4 hPa 0,0 l/m 0 h 0 h 0 W/m 3,2 km/h (1 Bft) 100,00 %
28.04.2019 21:48 9,7 C 7,2 C 6,1 C 80 % 1019,4 hPa 0,0 l/m 0 h 0 h 0 W/m 3,2 km/h (1 Bft) 100,00 %
28.04.2019 21:50 9,6 C 7,8 C 6,1 C 80 % 1019,4 hPa 0,0 l/m 0 h 0 h 0 W/m 3,2 km/h (1 Bft) 100,00 %
28.04.2019 21:52 9,6 C 7,8 C 6,1 C 80 % 1019,4 hPa 0,0 l/m 0 h 0 h 0 W/m 3,2 km/h (1 Bft) 100,00 %
28.04.2019 21:54 9,5 C 7,8 C 6,1 C 80 % 1019,4 hPa 0,0 l/m 0 h 0 h 0 W/m 6,4 km/h (2 Bft) 100,00 %
28.04.2019 21:56 9,4 C 8,3 C 6,1 C 81 % 1019,4 hPa 0,0 l/m 0 h 0 h 0 W/m 6,4 km/h (2 Bft) 100,00 %
28.04.2019 21:58 9,4 C 7,8 C 6,1 C 81 % 1019,5 hPa 0,0 l/m 0 h 0 h 0 W/m 0,0 km/h (0 Bft) 97,87 %
28.04.2019 22:00 9,4 C 7,8 C 6,1 C 81 % 1019,5 hPa 0,0 l/m 0 h 0 h 0 W/m 0,0 km/h (0 Bft) 100,00 %
28.04.2019 22:02 9,3 C 7,2 C 6,1 C 81 % 1019,5 hPa 0,0 l/m 0 h 0 h 0 W/m 0,0 km/h (0 Bft) 100,00 %
28.04.2019 22:04 9,3 C 7,2 C 6,1 C 81 % 1019,5 hPa 0,0 l/m 0 h 0 h 0 W/m 0,0 km/h (0 Bft) 98,21 %
28.04.2019 22:06 9,2 C 6,7 C 5,6 C 81 % 1019,5 hPa 0,0 l/m 0 h 0 h 0 W/m 0,0 km/h (0 Bft) 97,83 %
28.04.2019 22:08 9,1 C 6,7 C 5,6 C 81 % 1019,5 hPa 0,0 l/m 0 h 0 h 0 W/m 0,0 km/h (0 Bft) 97,87 %
28.04.2019 22:10 9,1 C 6,7 C 5,6 C 82 % 1019,4 hPa 0,0 l/m 0 h 0 h 0 W/m 0,0 km/h (0 Bft) 100,00 %
28.04.2019 22:12 9,0 C 6,7 C 5,6 C 82 % 1019,5 hPa 0,0 l/m 0 h 0 h 0 W/m 0,0 km/h (0 Bft) 100,00 %
28.04.2019 22:14 8,9 C 6,7 C 5,6 C 82 % 1019,5 hPa 0,0 l/m 0 h 0 h 0 W/m 0,0 km/h (0 Bft) 97,87 %
28.04.2019 22:16 8,9 C 6,7 C 5,6 C 82 % 1019,5 hPa 0,0 l/m 0 h 0 h 0 W/m 0,0 km/h (0 Bft) 100,00 %
28.04.2019 22:18 8,8 C 6,7 C 5,6 C 82 % 1019,5 hPa 0,0 l/m 0 h 0 h 0 W/m 0,0 km/h (0 Bft) 100,00 %
28.04.2019 22:20 8,8 C 6,1 C 5,6 C 83 % 1019,5 hPa 0,0 l/m 0 h 0 h 0 W/m 0,0 km/h (0 Bft) 100,00 %
28.04.2019 22:22 8,7 C 6,1 C 5,6 C 83 % 1019,5 hPa 0,0 l/m 0 h 0 h 0 W/m 0,0 km/h (0 Bft) 100,00 %
28.04.2019 22:24 8,7 C 6,1 C 5,0 C 83 % 1019,6 hPa 0,0 l/m 0 h 0 h 0 W/m 0,0 km/h (0 Bft) 100,00 %
28.04.2019 22:26 8,6 C 6,1 C 5,0 C 83 % 1019,6 hPa 0,0 l/m 0 h 0 h 0 W/m 0,0 km/h (0 Bft) 100,00 %
28.04.2019 22:28 8,6 C 6,1 C 5,0 C 83 % 1019,6 hPa 0,0 l/m 0 h 0 h 0 W/m 0,0 km/h (0 Bft) 100,00 %
28.04.2019 22:30 8,5 C 5,6 C 5,0 C 83 % 1019,6 hPa 0,0 l/m 0 h 0 h 0 W/m 0,0 km/h (0 Bft) 100,00 %
28.04.2019 22:32 8,4 C 5,6 C 5,0 C 83 % 1019,6 hPa 0,0 l/m 0 h 0 h 0 W/m 0,0 km/h (0 Bft) 100,00 %
28.04.2019 22:34 8,3 C 5,6 C 5,0 C 84 % 1019,7 hPa 0,0 l/m 0 h 0 h 0 W/m 0,0 km/h (0 Bft) 100,00 %
28.04.2019 22:36 8,3 C 5,6 C 5,0 C 84 % 1019,6 hPa 0,0 l/m 0 h 0 h 0 W/m 0,0 km/h (0 Bft) 100,00 %
28.04.2019 22:38 8,2 C 5,6 C 5,0 C 84 % 1019,6 hPa 0,0 l/m 0 h 0 h 0 W/m 0,0 km/h (0 Bft) 97,14 %
28.04.2019 22:40 8,2 C 5,6 C 5,0 C 84 % 1019,6 hPa 0,0 l/m 0 h 0 h 0 W/m 0,0 km/h (0 Bft) 100,00 %
28.04.2019 22:42 8,1 C 5,6 C 5,0 C 84 % 1019,6 hPa 0,0 l/m 0 h 0 h 0 W/m 0,0 km/h (0 Bft) 100,00 %
28.04.2019 22:44 8,1 C 5,0 C 5,0 C 84 % 1019,6 hPa 0,0 l/m 0 h 0 h 0 W/m 0,0 km/h (0 Bft) 95,74 %
28.04.2019 22:46 8,0 C 5,0 C 5,0 C 85 % 1019,6 hPa 0,0 l/m 0 h 0 h 0 W/m 0,0 km/h (0 Bft) 91,30 %
28.04.2019 22:48 7,9 C 5,0 C 5,0 C 85 % 1019,7 hPa 0,0 l/m 0 h 0 h 0 W/m 0,0 km/h (0 Bft) 95,74 %
28.04.2019 22:50 7,9 C 5,0 C 5,0 C 85 % 1019,7 hPa 0,0 l/m 0 h 0 h 0 W/m 0,0 km/h (0 Bft) 95,74 %
28.04.2019 22:52 7,8 C 5,0 C 5,0 C 85 % 1019,7 hPa 0,0 l/m 0 h 0 h 0 W/m 0,0 km/h (0 Bft) 93,62 %
28.04.2019 22:54 7,8 C 5,0 C 5,0 C 85 % 1019,8 hPa 0,0 l/m 0 h 0 h 0 W/m 0,0 km/h (0 Bft) 95,74 %
28.04.2019 22:56 7,7 C 5,0 C 5,0 C 85 % 1019,7 hPa 0,0 l/m 0 h 0 h 0 W/m 0,0 km/h (0 Bft) 93,62 %
28.04.2019 22:58 7,7 C 5,0 C 4,4 C 85 % 1019,8 hPa 0,0 l/m 0 h 0 h 0 W/m 0,0 km/h (0 Bft) 95,65 %
28.04.2019 23:00 7,7 C 5,0 C 4,4 C 85 % 1019,7 hPa 0,0 l/m 0 h 0 h 0 W/m 0,0 km/h (0 Bft) 97,87 %
28.04.2019 23:02 7,6 C 5,0 C 4,4 C 85 % 1019,8 hPa 0,0 l/m 0 h 0 h 0 W/m 0,0 km/h (0 Bft) 95,74 %
28.04.2019 23:04 7,6 C 5,0 C 4,4 C 85 % 1019,8 hPa 0,0 l/m 0 h 0 h 0 W/m 0,0 km/h (0 Bft) 95,74 %
28.04.2019 23:06 7,5 C 5,0 C 4,4 C 85 % 1019,8 hPa 0,0 l/m 0 h 0 h 0 W/m 0,0 km/h (0 Bft) 93,62 %
28.04.2019 23:08 7,4 C 5,0 C 4,4 C 86 % 1019,8 hPa 0,0 l/m 0 h 0 h 0 W/m 0,0 km/h (0 Bft) 97,87 %
28.04.2019 23:10 7,4 C 5,0 C 4,4 C 86 % 1019,9 hPa 0,0 l/m 0 h 0 h 0 W/m 0,0 km/h (0 Bft) 95,65 %
28.04.2019 23:12 7,4 C 5,0 C 4,4 C 86 % 1019,9 hPa 0,0 l/m 0 h 0 h 0 W/m 0,0 km/h (0 Bft) 95,74 %
28.04.2019 23:14 7,3 C 5,0 C 4,4 C 86 % 1019,9 hPa 0,0 l/m 0 h 0 h 0 W/m 0,0 km/h (0 Bft) 95,74 %
28.04.2019 23:16 7,3 C 5,0 C 4,4 C 86 % 1019,9 hPa 0,0 l/m 0 h 0 h 0 W/m 0,0 km/h (0 Bft) 91,49 %
28.04.2019 23:18 7,3 C 5,0 C 4,4 C 86 % 1019,9 hPa 0,0 l/m 0 h 0 h 0 W/m 0,0 km/h (0 Bft) 95,74 %
28.04.2019 23:20 7,2 C 5,0 C 4,4 C 86 % 1019,9 hPa 0,0 l/m 0 h 0 h 0 W/m 0,0 km/h (0 Bft) 95,74 %
28.04.2019 23:22 7,2 C 5,0 C 4,4 C 86 % 1019,9 hPa 0,0 l/m 0 h 0 h 0 W/m 0,0 km/h (0 Bft) 95,65 %
28.04.2019 23:24 7,2 C 5,0 C 4,4 C 86 % 1019,9 hPa 0,0 l/m 0 h 0 h 0 W/m 0,0 km/h (0 Bft) 95,74 %
28.04.2019 23:26 7,1 C 5,0 C 4,4 C 86 % 1020,0 hPa 0,0 l/m 0 h 0 h 0 W/m 0,0 km/h (0 Bft) 93,62 %
28.04.2019 23:28 7,1 C 5,0 C 4,4 C 86 % 1020,0 hPa 0,0 l/m 0 h 0 h 0 W/m 0,0 km/h (0 Bft) 95,74 %
28.04.2019 23:30 7,1 C 5,0 C 4,4 C 86 % 1020,0 hPa 0,0 l/m 0 h 0 h 0 W/m 0,0 km/h (0 Bft) 93,62 %
28.04.2019 23:32 7,0 C 4,4 C 4,4 C 86 % 1020,0 hPa 0,0 l/m 0 h 0 h 0 W/m 0,0 km/h (0 Bft) 95,65 %
28.04.2019 23:34 6,9 C 4,4 C 4,4 C 86 % 1020,0 hPa 0,0 l/m 0 h 0 h 0 W/m 0,0 km/h (0 Bft) 95,74 %
28.04.2019 23:36 6,9 C 4,4 C 3,9 C 87 % 1020,0 hPa 0,0 l/m 0 h 0 h 0 W/m 0,0 km/h (0 Bft) 95,74 %
28.04.2019 23:38 6,9 C 4,4 C 3,9 C 87 % 1020,1 hPa 0,0 l/m 0 h 0 h 0 W/m 0,0 km/h (0 Bft) 93,62 %
28.04.2019 23:40 6,8 C 4,4 C 3,9 C 87 % 1020,0 hPa 0,0 l/m 0 h 0 h 0 W/m 0,0 km/h (0 Bft) 93,62 %
28.04.2019 23:42 6,8 C 4,4 C 3,9 C 87 % 1020,1 hPa 0,0 l/m 0 h 0 h 0 W/m 0,0 km/h (0 Bft) 95,74 %
28.04.2019 23:44 6,8 C 4,4 C 3,9 C 87 % 1020,0 hPa 0,0 l/m 0 h 0 h 0 W/m 0,0 km/h (0 Bft) 95,65 %
28.04.2019 23:46 6,7 C 4,4 C 3,9 C 87 % 1020,0 hPa 0,0 l/m 0 h 0 h 0 W/m 0,0 km/h (0 Bft) 95,74 %
28.04.2019 23:48 6,7 C 4,4 C 3,9 C 87 % 1020,1 hPa 0,0 l/m 0 h 0 h 0 W/m 0,0 km/h (0 Bft) 93,62 %
28.04.2019 23:50 6,6 C 4,4 C 3,9 C 87 % 1020,1 hPa 0,0 l/m 0 h 0 h 0 W/m 0,0 km/h (0 Bft) 93,62 %
28.04.2019 23:52 6,6 C 4,4 C 3,9 C 87 % 1020,1 hPa 0,0 l/m 0 h 0 h 0 W/m 0,0 km/h (0 Bft) 95,74 %
28.04.2019 23:54 6,6 C 4,4 C 3,9 C 87 % 1020,1 hPa 0,0 l/m 0 h 0 h 0 W/m 0,0 km/h (0 Bft) 95,74 %
28.04.2019 23:56 6,5 C 4,4 C 3,9 C 87 % 1020,1 hPa 0,0 l/m 0 h 0 h 0 W/m 0,0 km/h (0 Bft) 95,65 %
28.04.2019 23:58 6,4 C 4,4 C 3,9 C 87 % 1020,1 hPa 0,0 l/m 0 h 0 h 0 W/m 0,0 km/h (0 Bft) 95,74 %
29.04.2019 00:00 6,4 C 4,4 C 3,9 C 87 % 1020,1 hPa 0,0 l/m 0 h 0 h 0 W/m 0,0 km/h (0 Bft) 95,74 %
29.04.2019 00:02 6,4 C 4,4 C 3,9 C 87 % 1020,1 hPa 0,0 l/m 0 h 0 h 0 W/m 0,0 km/h (0 Bft) 97,06 %
Min-Datum _ 28.04.19 28.04.19 28.04.19 28.04.19 28.04.19 - - - - 28.04.19 28.04.19
_ Min-Zeit 23:58 23:32 23:36 14:44 02:22 - - - - 18:44 04:18
Minimum _ 6,4 C 4,4 C 3,9 C 69 % 1012,9 hPa - - - - 0,0 km/h (0 Bft) 28,57 %
Max-Datum _ 28.04.19 28.04.19 28.04.19 28.04.19 28.04.19 28.04.19 28.04.19 28.04.19 28.04.19 28.04.19 28.04.19
_ Max-Zeit 17:34 13:06 13:08 23:36 23:38 08:34 08:48 08:32 10:50 02:08 01:00
Maximum _ 12,9 C 18,3 C 17,2 C 87 % 1020,1 hPa 0,2 l/m 2 h 2 h 704 W/m 32,2 km/h
O (5 Bft)
100,00 %
Durchschnitt _ 9,9 C 9,7 C 9,0 C 79 % 1015,7 hPa #20,0 l/m #39:07 h #17:10 h 0 W/m 10,1 km/h (2 Bft) 97,55 %
© 2019 W. Hausmann